Time,TemperatureF,DewpointF,PressureIn,WindDirection,WindDirectionDegrees,WindSpeedMPH,WindSpeedGustMPH,Humidity,HourlyPrecipIn,Conditions,Clouds,dailyrainin,SoftwareType,DateUTC
2013-01-11 00:01:00,33.8,32.0,30.26,East,91,1.0,1.0,93,0.00,,,0.08,Wunderground v.1.15,2013-01-11 05:01:00,
2013-01-11 00:04:00,33.8,32.0,30.26,ESE,121,1.0,3.0,93,0.00,,,0.08,Wunderground v.1.15,2013-01-11 05:04:00,
2013-01-11 00:05:00,33.8,32.0,30.26,SSE,147,2.0,3.0,93,0.00,,,0.08,Wunderground v.1.15,2013-01-11 05:05:00,
2013-01-11 00:07:00,33.8,32.0,30.26,SW,235,1.0,3.0,93,0.00,,,0.08,Wunderground v.1.15,2013-01-11 05:07:00,
2013-01-11 00:09:00,33.8,32.0,30.26,SE,128,0.0,3.0,93,0.00,,,0.08,Wunderground v.1.15,2013-01-11 05:09:00,
2013-01-11 00:10:00,33.9,32.1,30.26,SE,130,0.0,1.0,93,0.00,,,0.08,Wunderground v.1.15,2013-01-11 05:10:00,
2013-01-11 00:16:00,33.9,32.1,30.25,SE,127,0.0,2.0,93,0.00,,,0.08,Wunderground v.1.15,2013-01-11 05:16:00,
2013-01-11 00:17:00,33.8,32.0,30.25,East,91,1.0,2.0,93,0.00,,,0.09,Wunderground v.1.15,2013-01-11 05:17:00,
2013-01-11 00:19:00,33.9,32.1,30.25,East,84,2.0,2.0,93,0.00,,,0.09,Wunderground v.1.15,2013-01-11 05:19:00,
2013-01-11 00:20:00,33.8,32.0,30.25,East,83,1.0,1.0,93,0.00,,,0.09,Wunderground v.1.15,2013-01-11 05:20:00,
2013-01-11 00:23:00,33.9,32.1,30.24,East,82,1.0,1.0,93,0.00,,,0.09,Wunderground v.1.15,2013-01-11 05:23:00,
2013-01-11 00:26:00,33.9,32.1,30.24,East,97,1.0,2.0,93,0.00,,,0.00,Wunderground v.1.15,2013-01-11 05:26:00,
2013-01-11 00:28:00,33.9,32.1,30.24,ESE,104,4.0,4.0,93,0.00,,,0.00,Wunderground v.1.15,2013-01-11 05:28:00,
2013-01-11 00:29:00,33.9,32.1,30.24,East,82,2.0,4.0,93,0.00,,,0.00,Wunderground v.1.15,2013-01-11 05:29:00,
2013-01-11 00:31:00,34.0,32.2,30.24,ENE,63,5.0,5.0,93,0.00,,,0.00,Wunderground v.1.15,2013-01-11 05:31:00,
2013-01-11 00:33:00,34.0,32.2,30.23,ENE,69,1.0,5.0,93,0.00,,,0.00,Wunderground v.1.15,2013-01-11 05:33:00,
2013-01-11 00:36:00,34.0,31.9,30.23,East,101,1.0,5.0,92,0.00,,,0.00,Wunderground v.1.15,2013-01-11 05:36:00,
2013-01-11 00:37:00,34.0,31.9,30.24,NNE,13,1.0,5.0,92,0.00,,,0.00,Wunderground v.1.15,2013-01-11 05:37:00,
2013-01-11 00:38:00,34.0,31.9,30.23,SE,129,1.0,5.0,92,0.00,,,0.00,Wunderground v.1.15,2013-01-11 05:38:00,
2013-01-11 00:42:00,34.1,32.0,30.23,NE,46,3.0,3.0,92,0.00,,,0.00,Wunderground v.1.15,2013-01-11 05:42:00,
2013-01-11 00:43:00,34.1,32.0,30.23,ENE,77,2.0,3.0,92,0.00,,,0.00,Wunderground v.1.15,2013-01-11 05:43:00,
2013-01-11 00:45:00,34.1,32.0,30.23,ENE,72,2.0,3.0,92,0.00,,,0.00,Wunderground v.1.15,2013-01-11 05:45:00,
2013-01-11 00:46:00,34.1,32.0,30.23,ESE,115,0.0,3.0,92,0.00,,,0.00,Wunderground v.1.15,2013-01-11 05:46:00,
2013-01-11 00:47:00,34.1,32.0,30.23,South,176,2.0,3.0,92,0.00,,,0.00,Wunderground v.1.15,2013-01-11 05:47:00,
2013-01-11 00:49:00,34.1,32.0,30.23,WSW,253,0.0,3.0,92,0.00,,,0.00,Wunderground v.1.15,2013-01-11 05:49:00,
2013-01-11 00:51:00,34.1,32.0,30.23,East,91,1.0,2.0,92,0.00,,,0.00,Wunderground v.1.15,2013-01-11 05:51:00,
2013-01-11 00:52:00,34.1,32.0,30.24,SSE,151,1.0,2.0,92,0.00,,,0.00,Wunderground v.1.15,2013-01-11 05:52:00,
2013-01-11 00:54:00,34.1,32.0,30.23,SE,142,1.0,2.0,92,0.00,,,0.00,Wunderground v.1.15,2013-01-11 05:54:00,
2013-01-11 00:55:00,34.1,32.0,30.23,SE,127,2.0,2.0,92,0.00,,,0.01,Wunderground v.1.15,2013-01-11 05:55:00,
2013-01-11 00:59:00,34.1,32.0,30.23,NE,55,1.0,2.0,92,0.19,,,0.02,Wunderground v.1.15,2013-01-11 05:59:00,
2013-01-11 01:00:00,34.1,32.0,30.23,East,90,0.0,1.0,92,0.19,,,0.02,Wunderground v.1.15,2013-01-11 06:00:00,
2013-01-11 01:02:00,34.1,32.0,30.23,NE,53,2.0,3.0,92,0.21,,,0.03,Wunderground v.1.15,2013-01-11 06:02:00,
2013-01-11 01:05:00,34.1,32.0,30.23,ESE,119,2.0,3.0,92,0.15,,,0.03,Wunderground v.1.15,2013-01-11 06:05:00,
2013-01-11 01:06:00,34.1,32.0,30.23,SSE,163,1.0,3.0,92,0.12,,,0.03,Wunderground v.1.15,2013-01-11 06:06:00,
2013-01-11 01:10:00,34.1,32.3,30.23,East,95,1.0,1.0,93,0.24,,,0.05,Wunderground v.1.15,2013-01-11 06:10:00,
2013-01-11 01:11:00,34.1,32.3,30.23,East,81,1.0,1.0,93,0.24,,,0.05,Wunderground v.1.15,2013-01-11 06:11:00,
2013-01-11 01:12:00,34.1,32.3,30.23,East,88,1.0,1.0,93,0.35,,,0.06,Wunderground v.1.15,2013-01-11 06:12:00,
2013-01-11 01:13:00,34.1,32.3,30.22,East,89,1.0,1.0,93,0.35,,,0.06,Wunderground v.1.15,2013-01-11 06:13:00,
2013-01-11 01:17:00,34.0,32.2,30.23,ESE,106,1.0,2.0,93,0.26,,,0.08,Wunderground v.1.15,2013-01-11 06:17:00,
2013-01-11 01:19:00,34.0,32.2,30.22,South,185,2.0,3.0,93,0.36,,,0.09,Wunderground v.1.15,2013-01-11 06:19:00,
2013-01-11 01:20:00,34.0,32.2,30.22,ENE,68,2.0,2.0,93,0.32,,,0.09,Wunderground v.1.15,2013-01-11 06:20:00,
2013-01-11 01:22:00,34.0,32.2,30.22,ENE,72,1.0,2.0,93,0.30,,,0.10,Wunderground v.1.15,2013-01-11 06:22:00,
2013-01-11 01:24:00,34.0,32.2,30.22,WSW,238,2.0,2.0,93,0.25,,,0.11,Wunderground v.1.15,2013-01-11 06:24:00,
2013-01-11 01:25:00,34.0,32.2,30.22,North,354,0.0,2.0,93,0.23,,,0.11,Wunderground v.1.15,2013-01-11 06:25:00,
2013-01-11 01:26:00,34.0,32.2,30.22,SE,131,0.0,2.0,93,0.21,,,0.12,Wunderground v.1.15,2013-01-11 06:26:00,
2013-01-11 01:27:00,34.0,32.2,30.22,East,85,2.0,2.0,93,0.21,,,0.12,Wunderground v.1.15,2013-01-11 06:27:00,
2013-01-11 01:31:00,33.9,32.1,30.22,East,91,2.0,5.0,93,0.35,,,0.14,Wunderground v.1.15,2013-01-11 06:31:00,
2013-01-11 01:32:00,33.9,32.1,30.21,East,95,2.0,5.0,93,0.29,,,0.14,Wunderground v.1.15,2013-01-11 06:32:00,
2013-01-11 01:33:00,33.9,32.1,30.22,WNW,285,0.0,5.0,93,0.29,,,0.15,Wunderground v.1.15,2013-01-11 06:33:00,
2013-01-11 01:37:00,33.9,32.1,30.21,ESE,114,4.0,5.0,93,0.12,,,0.15,Wunderground v.1.15,2013-01-11 06:37:00,
2013-01-11 01:39:00,33.9,32.1,30.21,ESE,105,1.0,5.0,93,0.08,,,0.15,Wunderground v.1.15,2013-01-11 06:39:00,
2013-01-11 01:41:00,33.9,32.4,30.21,NE,43,2.0,2.0,94,0.07,,,0.15,Wunderground v.1.15,2013-01-11 06:41:00,
2013-01-11 01:42:00,33.9,32.4,30.21,NNE,33,1.0,2.0,94,0.06,,,0.15,Wunderground v.1.15,2013-01-11 06:42:00,
2013-01-11 01:43:00,33.9,32.4,30.20,East,97,3.0,3.0,94,0.05,,,0.15,Wunderground v.1.15,2013-01-11 06:43:00,
2013-01-11 01:44:00,33.8,32.3,30.20,ENE,76,2.0,3.0,94,0.05,,,0.15,Wunderground v.1.15,2013-01-11 06:44:00,
2013-01-11 01:48:00,33.8,32.3,30.19,ENE,76,3.0,4.0,94,0.04,,,0.15,Wunderground v.1.15,2013-01-11 06:48:00,
2013-01-11 01:49:00,33.8,32.3,30.19,East,79,2.0,4.0,94,0.04,,,0.15,Wunderground v.1.15,2013-01-11 06:49:00,
2013-01-11 01:51:00,33.8,32.3,30.19,ENE,67,2.0,3.0,94,0.00,,,0.15,Wunderground v.1.15,2013-01-11 06:51:00,
2013-01-11 01:53:00,33.8,32.3,30.19,East,96,4.0,9.0,94,0.00,,,0.15,Wunderground v.1.15,2013-01-11 06:53:00,
2013-01-11 01:54:00,33.8,32.3,30.19,East,89,2.0,9.0,94,0.00,,,0.15,Wunderground v.1.15,2013-01-11 06:54:00,
2013-01-11 01:56:00,33.8,32.3,30.19,SE,131,2.0,9.0,94,0.00,,,0.15,Wunderground v.1.15,2013-01-11 06:56:00,
2013-01-11 02:00:00,33.8,32.3,30.19,ESE,111,4.0,4.0,94,0.00,,,0.15,Wunderground v.1.15,2013-01-11 07:00:00,
2013-01-11 02:01:00,33.8,32.3,30.19,East,96,3.0,4.0,94,0.00,,,0.15,Wunderground v.1.15,2013-01-11 07:01:00,
2013-01-11 02:05:00,33.8,32.3,30.19,ENE,64,2.0,5.0,94,0.00,,,0.16,Wunderground v.1.15,2013-01-11 07:05:00,
2013-01-11 02:06:00,33.9,32.4,30.19,ENE,69,2.0,5.0,94,0.00,,,0.16,Wunderground v.1.15,2013-01-11 07:06:00,
2013-01-11 02:10:00,33.9,32.4,30.18,East,89,2.0,3.0,94,0.21,,,0.18,Wunderground v.1.15,2013-01-11 07:10:00,
2013-01-11 02:11:00,33.9,32.4,30.18,ENE,74,1.0,3.0,94,0.19,,,0.18,Wunderground v.1.15,2013-01-11 07:11:00,
2013-01-11 02:15:00,33.9,32.4,30.18,East,95,2.0,3.0,94,0.08,,,0.18,Wunderground v.1.15,2013-01-11 07:15:00,
2013-01-11 02:16:00,33.9,32.4,30.18,ESE,103,2.0,3.0,94,0.07,,,0.18,Wunderground v.1.15,2013-01-11 07:16:00,
2013-01-11 02:17:00,33.8,32.3,30.18,East,81,3.0,4.0,94,0.07,,,0.19,Wunderground v.1.15,2013-01-11 07:17:00,
2013-01-11 02:21:00,33.9,32.4,30.18,NE,53,2.0,3.0,94,0.07,,,0.19,Wunderground v.1.15,2013-01-11 07:21:00,
2013-01-11 02:22:00,33.9,32.4,30.18,East,84,0.0,3.0,94,0.07,,,0.19,Wunderground v.1.15,2013-01-11 07:22:00,
2013-01-11 02:25:00,33.9,32.4,30.19,East,91,0.0,5.0,94,0.07,,,0.19,Wunderground v.1.15,2013-01-11 07:25:00,
2013-01-11 02:26:00,33.9,32.4,30.19,East,91,0.0,5.0,94,0.06,,,0.19,Wunderground v.1.15,2013-01-11 07:26:00,
2013-01-11 02:27:00,33.9,32.4,30.19,NNE,22,1.0,5.0,94,0.06,,,0.19,Wunderground v.1.15,2013-01-11 07:27:00,
2013-01-11 02:31:00,34.0,32.5,30.19,SSE,147,0.0,2.0,94,0.04,,,0.19,Wunderground v.1.15,2013-01-11 07:31:00,
2013-01-11 02:32:00,34.0,32.5,30.19,East,100,2.0,2.0,94,0.04,,,0.19,Wunderground v.1.15,2013-01-11 07:32:00,
2013-01-11 02:36:00,34.0,32.5,30.19,East,79,1.0,3.0,94,0.00,,,0.19,Wunderground v.1.15,2013-01-11 07:36:00,
2013-01-11 02:37:00,34.0,32.5,30.19,East,91,0.0,3.0,94,0.00,,,0.20,Wunderground v.1.15,2013-01-11 07:37:00,
2013-01-11 02:41:00,33.9,32.4,30.18,East,81,0.0,3.0,94,0.51,,,0.25,Wunderground v.1.15,2013-01-11 07:41:00,
2013-01-11 02:42:00,33.9,32.4,30.18,SE,132,0.0,3.0,94,0.51,,,0.25,Wunderground v.1.15,2013-01-11 07:42:00,
2013-01-11 02:43:00,33.9,32.4,30.18,SE,127,1.0,3.0,94,0.31,,,0.25,Wunderground v.1.15,2013-01-11 07:43:00,
2013-01-11 02:46:00,33.9,32.4,30.18,East,84,0.0,3.0,94,0.20,,,0.27,Wunderground v.1.15,2013-01-11 07:46:00,
2013-01-11 02:47:00,33.9,32.4,30.18,ESE,105,0.0,3.0,94,0.20,,,0.27,Wunderground v.1.15,2013-01-11 07:47:00,
2013-01-11 02:48:00,33.9,32.4,30.18,East,97,2.0,3.0,94,0.27,,,0.27,Wunderground v.1.15,2013-01-11 07:48:00,
2013-01-11 02:51:00,33.9,32.6,30.18,East,91,1.0,1.0,95,0.18,,,0.28,Wunderground v.1.15,2013-01-11 07:51:00,
2013-01-11 02:52:00,33.9,32.6,30.18,SSE,149,2.0,3.0,95,0.18,,,0.29,Wunderground v.1.15,2013-01-11 07:52:00,
2013-01-11 02:53:00,33.9,32.6,30.18,East,81,2.0,3.0,95,0.18,,,0.29,Wunderground v.1.15,2013-01-11 07:53:00,
2013-01-11 02:56:00,33.9,32.6,30.17,East,79,1.0,4.0,95,0.34,,,0.31,Wunderground v.1.15,2013-01-11 07:56:00,
2013-01-11 02:57:00,33.9,32.6,30.17,East,97,2.0,4.0,95,0.29,,,0.31,Wunderground v.1.15,2013-01-11 07:57:00,
2013-01-11 02:58:00,34.0,32.7,30.17,ENE,72,3.0,6.0,95,0.26,,,0.32,Wunderground v.1.15,2013-01-11 07:58:00,
2013-01-11 03:01:00,33.9,32.6,30.17,East,84,2.0,4.0,95,0.22,,,0.33,Wunderground v.1.15,2013-01-11 08:01:00,
2013-01-11 03:02:00,33.9,32.6,30.17,NE,55,0.0,4.0,95,0.22,,,0.33,Wunderground v.1.15,2013-01-11 08:02:00,
2013-01-11 03:04:00,33.9,32.6,30.17,East,84,1.0,4.0,95,0.19,,,0.34,Wunderground v.1.15,2013-01-11 08:04:00,
2013-01-11 03:06:00,33.9,32.6,30.17,East,98,0.0,4.0,95,0.18,,,0.34,Wunderground v.1.15,2013-01-11 08:06:00,
2013-01-11 03:07:00,33.9,32.6,30.17,East,82,0.0,4.0,95,0.15,,,0.34,Wunderground v.1.15,2013-01-11 08:07:00,
2013-01-11 03:09:00,34.0,32.7,30.17,SE,134,1.0,4.0,95,0.14,,,0.35,Wunderground v.1.15,2013-01-11 08:09:00,
2013-01-11 03:11:00,33.9,32.6,30.17,East,86,2.0,2.0,95,0.14,,,0.35,Wunderground v.1.15,2013-01-11 08:11:00,
2013-01-11 03:12:00,33.9,32.6,30.16,SSE,160,1.0,5.0,95,0.13,,,0.35,Wunderground v.1.15,2013-01-11 08:12:00,
2013-01-11 03:15:00,33.9,32.6,30.16,ENE,58,1.0,5.0,95,0.10,,,0.36,Wunderground v.1.15,2013-01-11 08:15:00,
2013-01-11 03:17:00,33.9,32.6,30.16,East,86,3.0,5.0,95,0.10,,,0.36,Wunderground v.1.15,2013-01-11 08:17:00,
2013-01-11 03:18:00,34.0,32.7,30.15,East,81,2.0,5.0,95,0.10,,,0.36,Wunderground v.1.15,2013-01-11 08:18:00,
2013-01-11 03:20:00,34.0,32.7,30.15,ENE,69,1.0,2.0,95,0.10,,,0.36,Wunderground v.1.15,2013-01-11 08:20:00,
2013-01-11 03:22:00,33.9,32.6,30.15,ENE,67,2.0,3.0,95,0.08,,,0.37,Wunderground v.1.15,2013-01-11 08:22:00,
2013-01-11 03:23:00,34.0,32.7,30.15,East,84,2.0,5.0,95,0.08,,,0.37,Wunderground v.1.15,2013-01-11 08:23:00,
2013-01-11 03:25:00,34.0,32.7,30.15,SE,135,3.0,5.0,95,0.08,,,0.37,Wunderground v.1.15,2013-01-11 08:25:00,
2013-01-11 03:27:00,34.0,32.7,30.14,ENE,64,2.0,5.0,95,0.14,,,0.38,Wunderground v.1.15,2013-01-11 08:27:00,
2013-01-11 03:28:00,34.0,32.7,30.14,East,88,3.0,6.0,95,0.14,,,0.38,Wunderground v.1.15,2013-01-11 08:28:00,
2013-01-11 03:30:00,34.0,32.7,30.14,ENE,62,2.0,3.0,95,0.12,,,0.38,Wunderground v.1.15,2013-01-11 08:30:00,
2013-01-11 03:32:00,34.0,32.7,30.14,East,90,1.0,6.0,95,0.08,,,0.38,Wunderground v.1.15,2013-01-11 08:32:00,
2013-01-11 03:33:00,34.0,32.7,30.14,East,97,1.0,6.0,95,0.07,,,0.38,Wunderground v.1.15,2013-01-11 08:33:00,
2013-01-11 03:34:00,34.0,32.7,30.14,East,87,1.0,6.0,95,0.07,,,0.39,Wunderground v.1.15,2013-01-11 08:34:00,
2013-01-11 03:35:00,34.0,32.7,30.13,East,97,2.0,6.0,95,0.07,,,0.39,Wunderground v.1.15,2013-01-11 08:35:00,
2013-01-11 03:38:00,34.0,32.7,30.13,ESE,105,2.0,6.0,95,0.17,,,0.40,Wunderground v.1.15,2013-01-11 08:38:00,
2013-01-11 03:39:00,34.0,32.7,30.13,SSE,165,1.0,6.0,95,0.17,,,0.40,Wunderground v.1.15,2013-01-11 08:39:00,
2013-01-11 03:40:00,34.0,32.7,30.13,East,82,0.0,2.0,95,0.24,,,0.41,Wunderground v.1.15,2013-01-11 08:40:00,
2013-01-11 03:43:00,34.0,32.7,30.13,East,97,2.0,3.0,95,0.16,,,0.41,Wunderground v.1.15,2013-01-11 08:43:00,
2013-01-11 03:44:00,34.0,32.7,30.13,ENE,57,2.0,3.0,95,0.14,,,0.42,Wunderground v.1.15,2013-01-11 08:44:00,
2013-01-11 03:45:00,34.0,32.7,30.13,South,181,1.0,3.0,95,0.14,,,0.42,Wunderground v.1.15,2013-01-11 08:45:00,
2013-01-11 03:48:00,34.0,32.7,30.13,ESE,114,2.0,5.0,95,0.17,,,0.43,Wunderground v.1.15,2013-01-11 08:48:00,
2013-01-11 03:49:00,34.1,32.8,30.13,East,83,1.0,5.0,95,0.17,,,0.43,Wunderground v.1.15,2013-01-11 08:49:00,
2013-01-11 03:50:00,34.0,32.7,30.13,ESE,105,0.0,3.0,95,0.23,,,0.44,Wunderground v.1.15,2013-01-11 08:50:00,
2013-01-11 03:53:00,34.1,32.8,30.12,East,79,0.0,4.0,95,0.24,,,0.45,Wunderground v.1.15,2013-01-11 08:53:00,
2013-01-11 03:54:00,34.0,32.7,30.12,NE,53,3.0,4.0,95,0.24,,,0.45,Wunderground v.1.15,2013-01-11 08:54:00,
2013-01-11 03:55:00,34.1,32.8,30.12,SSE,161,1.0,6.0,95,0.18,,,0.45,Wunderground v.1.15,2013-01-11 08:55:00,
2013-01-11 03:58:00,34.0,32.7,30.12,ESE,121,4.0,7.0,95,0.10,,,0.45,Wunderground v.1.15,2013-01-11 08:58:00,
2013-01-11 03:59:00,34.1,32.8,30.12,ESE,119,1.0,7.0,95,0.09,,,0.45,Wunderground v.1.15,2013-01-11 08:59:00,
2013-01-11 04:01:00,34.0,32.7,30.12,SE,129,3.0,4.0,95,0.07,,,0.45,Wunderground v.1.15,2013-01-11 09:01:00,
2013-01-11 04:03:00,34.1,32.8,30.11,ENE,70,2.0,7.0,95,0.05,,,0.45,Wunderground v.1.15,2013-01-11 09:03:00,
2013-01-11 04:04:00,34.0,32.7,30.11,East,91,6.0,7.0,95,0.05,,,0.45,Wunderground v.1.15,2013-01-11 09:04:00,
2013-01-11 04:06:00,34.0,32.7,30.12,SW,225,3.0,7.0,95,0.05,,,0.46,Wunderground v.1.15,2013-01-11 09:06:00,
2013-01-11 04:09:00,34.0,32.7,30.11,ENE,73,2.0,7.0,95,0.05,,,0.46,Wunderground v.1.15,2013-01-11 09:09:00,
2013-01-11 04:12:00,34.0,32.7,30.11,SSW,197,2.0,6.0,95,0.05,,,0.46,Wunderground v.1.15,2013-01-11 09:12:00,
2013-01-11 04:14:00,34.0,32.7,30.11,West,262,1.0,6.0,95,0.07,,,0.47,Wunderground v.1.15,2013-01-11 09:14:00,
2013-01-11 04:17:00,34.0,32.7,30.09,East,84,3.0,6.0,95,0.07,,,0.47,Wunderground v.1.15,2013-01-11 09:17:00,
2013-01-11 04:19:00,34.0,32.7,30.09,East,89,2.0,6.0,95,0.07,,,0.47,Wunderground v.1.15,2013-01-11 09:19:00,
2013-01-11 04:20:00,34.0,32.7,30.09,East,88,2.0,2.0,95,0.07,,,0.47,Wunderground v.1.15,2013-01-11 09:20:00,
2013-01-11 04:22:00,34.0,33.0,30.09,ENE,62,1.0,3.0,96,0.06,,,0.47,Wunderground v.1.15,2013-01-11 09:22:00,
2013-01-11 04:24:00,34.0,33.0,30.09,South,170,1.0,3.0,96,0.05,,,0.47,Wunderground v.1.15,2013-01-11 09:24:00,
2013-01-11 04:25:00,34.0,33.0,30.09,SE,128,0.0,3.0,96,0.05,,,0.47,Wunderground v.1.15,2013-01-11 09:25:00,
2013-01-11 04:27:00,34.0,33.0,30.08,SE,141,0.0,3.0,96,0.04,,,0.47,Wunderground v.1.15,2013-01-11 09:27:00,
2013-01-11 04:29:00,34.1,33.1,30.08,East,82,1.0,3.0,96,0.04,,,0.47,Wunderground v.1.15,2013-01-11 09:29:00,
2013-01-11 04:30:00,34.1,33.1,30.08,East,89,1.0,1.0,96,0.00,,,0.47,Wunderground v.1.15,2013-01-11 09:30:00,
2013-01-11 04:32:00,34.1,33.1,30.08,SSE,155,2.0,4.0,96,0.00,,,0.47,Wunderground v.1.15,2013-01-11 09:32:00,
2013-01-11 04:35:00,34.1,33.1,30.08,East,79,1.0,4.0,96,0.00,,,0.47,Wunderground v.1.15,2013-01-11 09:35:00,
2013-01-11 04:38:00,34.1,33.1,30.08,ESE,108,1.0,4.0,96,0.00,,,0.47,Wunderground v.1.15,2013-01-11 09:38:00,
2013-01-11 04:40:00,34.1,33.1,30.08,East,95,1.0,2.0,96,0.00,,,0.47,Wunderground v.1.15,2013-01-11 09:40:00,
2013-01-11 04:43:00,34.1,33.1,30.08,SE,134,1.0,2.0,96,0.00,,,0.47,Wunderground v.1.15,2013-01-11 09:43:00,
2013-01-11 04:45:00,34.1,33.1,30.07,East,79,3.0,4.0,96,0.00,,,0.47,Wunderground v.1.15,2013-01-11 09:45:00,
2013-01-11 04:48:00,34.2,33.2,30.07,WSW,246,0.0,6.0,96,0.00,,,0.47,Wunderground v.1.15,2013-01-11 09:48:00,
2013-01-11 04:50:00,34.2,33.2,30.07,NE,36,3.0,4.0,96,0.00,,,0.47,Wunderground v.1.15,2013-01-11 09:50:00,
2013-01-11 04:53:00,34.2,33.2,30.07,WSW,246,1.0,4.0,96,0.00,,,0.47,Wunderground v.1.15,2013-01-11 09:53:00,
2013-01-11 04:55:00,34.2,33.2,30.07,East,93,0.0,4.0,96,0.00,,,0.47,Wunderground v.1.15,2013-01-11 09:55:00,
2013-01-11 04:56:00,34.2,33.2,30.07,East,94,0.0,4.0,96,0.00,,,0.47,Wunderground v.1.15,2013-01-11 09:56:00,
2013-01-11 04:58:00,34.2,33.2,30.07,ESE,114,1.0,4.0,96,0.00,,,0.47,Wunderground v.1.15,2013-01-11 09:58:00,
2013-01-11 05:00:00,34.3,33.3,30.06,ESE,108,0.0,1.0,96,0.00,,,0.47,Wunderground v.1.15,2013-01-11 10:00:00,
2013-01-11 05:01:00,34.3,33.3,30.06,SE,132,2.0,2.0,96,0.00,,,0.47,Wunderground v.1.15,2013-01-11 10:01:00,
2013-01-11 05:03:00,34.3,33.3,30.06,ENE,68,1.0,3.0,96,0.00,,,0.47,Wunderground v.1.15,2013-01-11 10:03:00,
2013-01-11 05:06:00,34.3,33.3,30.06,SSE,148,0.0,3.0,96,0.00,,,0.47,Wunderground v.1.15,2013-01-11 10:06:00,
2013-01-11 05:09:00,34.3,33.3,30.06,ENE,77,2.0,3.0,96,0.00,,,0.47,Wunderground v.1.15,2013-01-11 10:09:00,
2013-01-11 05:11:00,34.3,33.3,30.06,NE,55,1.0,2.0,96,0.00,,,0.47,Wunderground v.1.15,2013-01-11 10:11:00,
2013-01-11 05:14:00,34.3,33.3,30.05,East,90,3.0,3.0,96,0.00,,,0.47,Wunderground v.1.15,2013-01-11 10:14:00,
2013-01-11 05:16:00,34.3,33.3,30.05,East,96,0.0,3.0,96,0.00,,,0.47,Wunderground v.1.15,2013-01-11 10:16:00,
2013-01-11 05:19:00,34.3,33.3,30.05,ENE,65,0.0,3.0,96,0.00,,,0.47,Wunderground v.1.15,2013-01-11 10:19:00,
2013-01-11 05:21:00,34.4,33.4,30.05,SE,133,2.0,2.0,96,0.00,,,0.47,Wunderground v.1.15,2013-01-11 10:21:00,
2013-01-11 05:24:00,34.4,33.4,30.05,East,91,2.0,4.0,96,0.00,,,0.47,Wunderground v.1.15,2013-01-11 10:24:00,
2013-01-11 05:26:00,34.4,33.4,30.05,SE,128,1.0,4.0,96,0.00,,,0.47,Wunderground v.1.15,2013-01-11 10:26:00,
2013-01-11 05:27:00,34.4,33.4,30.05,SE,129,1.0,4.0,96,0.00,,,0.47,Wunderground v.1.15,2013-01-11 10:27:00,
2013-01-11 05:29:00,34.4,33.4,30.05,East,86,1.0,4.0,96,0.00,,,0.47,Wunderground v.1.15,2013-01-11 10:29:00,
2013-01-11 05:31:00,34.4,33.4,30.04,SE,133,1.0,4.0,96,0.00,,,0.48,Wunderground v.1.15,2013-01-11 10:31:00,
2013-01-11 05:32:00,34.4,33.4,30.04,East,82,1.0,4.0,96,0.00,,,0.48,Wunderground v.1.15,2013-01-11 10:32:00,
2013-01-11 05:34:00,34.4,33.4,30.04,SSE,167,2.0,4.0,96,0.00,,,0.48,Wunderground v.1.15,2013-01-11 10:34:00,
2013-01-11 05:36:00,34.4,33.4,30.04,SE,145,0.0,4.0,96,0.00,,,0.48,Wunderground v.1.15,2013-01-11 10:36:00,
2013-01-11 05:37:00,34.4,33.4,30.04,ENE,69,1.0,4.0,96,0.00,,,0.48,Wunderground v.1.15,2013-01-11 10:37:00,
2013-01-11 05:39:00,34.4,33.4,30.04,WNW,288,1.0,4.0,96,0.00,,,0.48,Wunderground v.1.15,2013-01-11 10:39:00,
2013-01-11 05:42:00,34.4,33.4,30.04,East,96,1.0,3.0,96,0.00,,,0.48,Wunderground v.1.15,2013-01-11 10:42:00,
2013-01-11 05:44:00,34.5,33.5,30.04,SE,139,1.0,5.0,96,0.00,,,0.48,Wunderground v.1.15,2013-01-11 10:44:00,
2013-01-11 05:47:00,34.5,33.5,30.04,NE,55,1.0,5.0,96,0.00,,,0.48,Wunderground v.1.15,2013-01-11 10:47:00,
2013-01-11 05:50:00,34.5,33.5,30.04,East,82,1.0,1.0,96,0.00,,,0.48,Wunderground v.1.15,2013-01-11 10:50:00,
2013-01-11 05:52:00,34.5,33.5,30.03,East,89,2.0,4.0,96,0.00,,,0.48,Wunderground v.1.15,2013-01-11 10:52:00,
2013-01-11 05:55:00,34.5,33.5,30.03,ENE,68,1.0,4.0,96,0.00,,,0.49,Wunderground v.1.15,2013-01-11 10:55:00,
2013-01-11 05:57:00,34.5,33.5,30.03,SE,124,1.0,5.0,96,0.00,,,0.49,Wunderground v.1.15,2013-01-11 10:57:00,
2013-01-11 06:00:00,34.5,33.5,30.03,ENE,76,1.0,2.0,96,0.00,,,0.49,Wunderground v.1.15,2013-01-11 11:00:00,
2013-01-11 06:02:00,34.5,33.5,30.03,WNW,288,1.0,3.0,96,0.00,,,0.49,Wunderground v.1.15,2013-01-11 11:02:00,
2013-01-11 06:03:00,34.5,33.5,30.03,SSE,165,1.0,3.0,96,0.00,,,0.49,Wunderground v.1.15,2013-01-11 11:03:00,
2013-01-11 06:05:00,34.5,33.5,30.03,ESE,103,4.0,6.0,96,0.00,,,0.49,Wunderground v.1.15,2013-01-11 11:05:00,
2013-01-11 06:07:00,34.5,33.5,30.02,East,82,1.0,6.0,96,0.00,,,0.49,Wunderground v.1.15,2013-01-11 11:07:00,
2013-01-11 06:08:00,34.5,33.5,30.02,East,98,2.0,6.0,96,0.00,,,0.49,Wunderground v.1.15,2013-01-11 11:08:00,
2013-01-11 06:10:00,34.5,33.5,30.03,ESE,111,1.0,1.0,96,0.00,,,0.49,Wunderground v.1.15,2013-01-11 11:10:00,
2013-01-11 06:13:00,34.6,33.6,30.02,East,84,2.0,5.0,96,0.00,,,0.49,Wunderground v.1.15,2013-01-11 11:13:00,
2013-01-11 06:14:00,34.6,33.6,30.02,East,91,2.0,5.0,96,0.00,,,0.49,Wunderground v.1.15,2013-01-11 11:14:00,
2013-01-11 06:15:00,34.6,33.6,30.02,ESE,109,2.0,5.0,96,0.00,,,0.49,Wunderground v.1.15,2013-01-11 11:15:00,
2013-01-11 06:18:00,34.6,33.6,30.02,ESE,103,2.0,5.0,96,0.00,,,0.50,Wunderground v.1.15,2013-01-11 11:18:00,
2013-01-11 06:19:00,34.6,33.6,30.02,ESE,105,0.0,5.0,96,0.00,,,0.50,Wunderground v.1.15,2013-01-11 11:19:00,
2013-01-11 06:20:00,34.6,33.6,30.02,SE,136,0.0,2.0,96,0.00,,,0.50,Wunderground v.1.15,2013-01-11 11:20:00,
2013-01-11 06:23:00,34.6,33.6,30.02,East,94,2.0,2.0,96,0.00,,,0.50,Wunderground v.1.15,2013-01-11 11:23:00,
2013-01-11 06:24:00,34.6,33.6,30.02,ESE,114,1.0,2.0,96,0.00,,,0.50,Wunderground v.1.15,2013-01-11 11:24:00,
2013-01-11 06:25:00,34.6,33.6,30.01,East,80,1.0,2.0,96,0.07,,,0.51,Wunderground v.1.15,2013-01-11 11:25:00,
2013-01-11 06:28:00,34.6,33.6,30.01,SE,131,0.0,2.0,96,0.07,,,0.51,Wunderground v.1.15,2013-01-11 11:28:00,
2013-01-11 06:29:00,34.6,33.6,30.01,North,1,0.0,3.0,96,0.07,,,0.51,Wunderground v.1.15,2013-01-11 11:29:00,
2013-01-11 06:30:00,34.6,33.6,30.01,ESE,105,0.0,3.0,96,0.07,,,0.51,Wunderground v.1.15,2013-01-11 11:30:00,
2013-01-11 06:33:00,34.6,33.6,30.01,ENE,68,2.0,5.0,96,0.10,,,0.52,Wunderground v.1.15,2013-01-11 11:33:00,
2013-01-11 06:34:00,34.6,33.6,30.01,ESE,103,1.0,5.0,96,0.10,,,0.52,Wunderground v.1.15,2013-01-11 11:34:00,
2013-01-11 06:35:00,34.6,33.6,30.01,NNE,23,0.0,5.0,96,0.10,,,0.52,Wunderground v.1.15,2013-01-11 11:35:00,
2013-01-11 06:38:00,34.6,33.6,30.01,ENE,69,2.0,5.0,96,0.08,,,0.52,Wunderground v.1.15,2013-01-11 11:38:00,
2013-01-11 06:39:00,34.6,33.6,30.01,ESE,121,2.0,5.0,96,0.08,,,0.52,Wunderground v.1.15,2013-01-11 11:39:00,
2013-01-11 06:40:00,34.6,33.6,30.01,ESE,104,1.0,2.0,96,0.06,,,0.52,Wunderground v.1.15,2013-01-11 11:40:00,
2013-01-11 06:43:00,34.7,33.7,30.01,ESE,117,3.0,7.0,96,0.05,,,0.52,Wunderground v.1.15,2013-01-11 11:43:00,
2013-01-11 06:44:00,34.7,33.7,30.01,East,89,1.0,7.0,96,0.05,,,0.52,Wunderground v.1.15,2013-01-11 11:44:00,
2013-01-11 06:45:00,34.7,33.7,30.01,SSE,153,1.0,7.0,96,0.04,,,0.52,Wunderground v.1.15,2013-01-11 11:45:00,
2013-01-11 06:48:00,34.7,33.7,30.01,SE,129,0.0,7.0,96,0.42,,,0.55,Wunderground v.1.15,2013-01-11 11:48:00,
2013-01-11 06:49:00,34.7,33.7,30.00,East,91,1.0,7.0,96,0.49,,,0.55,Wunderground v.1.15,2013-01-11 11:49:00,
2013-01-11 06:50:00,34.7,33.7,30.00,East,93,2.0,2.0,96,0.40,,,0.56,Wunderground v.1.15,2013-01-11 11:50:00,
2013-01-11 06:53:00,34.7,33.7,30.00,ESE,117,2.0,4.0,96,0.27,,,0.57,Wunderground v.1.15,2013-01-11 11:53:00,
2013-01-11 06:54:00,34.7,33.7,30.00,SSW,192,0.0,4.0,96,0.20,,,0.58,Wunderground v.1.15,2013-01-11 11:54:00,
2013-01-11 06:56:00,34.7,33.7,30.01,SE,136,1.0,4.0,96,0.20,,,0.58,Wunderground v.1.15,2013-01-11 11:56:00,
2013-01-11 06:58:00,34.8,33.8,30.01,East,89,2.0,4.0,96,0.49,,,0.61,Wunderground v.1.15,2013-01-11 11:58:00,
2013-01-11 06:59:00,34.8,33.8,30.00,ENE,69,3.0,4.0,96,0.49,,,0.61,Wunderground v.1.15,2013-01-11 11:59:00,
2013-01-11 07:00:00,34.8,33.8,30.00,ENE,72,1.0,2.0,96,0.30,,,0.61,Wunderground v.1.15,2013-01-11 12:00:00,
2013-01-11 07:01:00,34.8,33.8,30.00,ENE,72,1.0,2.0,96,0.24,,,0.61,Wunderground v.1.15,2013-01-11 12:01:00,
2013-01-11 07:03:00,34.8,33.8,30.00,East,96,3.0,3.0,96,0.11,,,0.61,Wunderground v.1.15,2013-01-11 12:03:00,
2013-01-11 07:04:00,34.8,33.8,30.00,East,96,2.0,3.0,96,0.11,,,0.62,Wunderground v.1.15,2013-01-11 12:04:00,
2013-01-11 07:05:00,34.8,33.8,30.00,East,79,1.0,3.0,96,0.11,,,0.62,Wunderground v.1.15,2013-01-11 12:05:00,
2013-01-11 07:06:00,34.8,33.8,30.00,East,81,0.0,3.0,96,0.11,,,0.62,Wunderground v.1.15,2013-01-11 12:06:00,
2013-01-11 07:08:00,34.8,33.8,30.00,SSW,210,4.0,4.0,96,0.16,,,0.63,Wunderground v.1.15,2013-01-11 12:08:00,
2013-01-11 07:10:00,34.8,33.8,30.00,SE,136,0.0,1.0,96,0.16,,,0.63,Wunderground v.1.15,2013-01-11 12:10:00,
2013-01-11 07:11:00,34.8,33.8,30.00,South,187,1.0,2.0,96,0.16,,,0.63,Wunderground v.1.15,2013-01-11 12:11:00,
2013-01-11 07:13:00,34.8,33.8,30.00,ENE,64,1.0,2.0,96,0.10,,,0.63,Wunderground v.1.15,2013-01-11 12:13:00,
2013-01-11 07:15:00,34.8,33.8,30.00,East,96,1.0,2.0,96,0.08,,,0.63,Wunderground v.1.15,2013-01-11 12:15:00,
2013-01-11 07:16:00,34.9,33.9,30.00,East,96,0.0,2.0,96,0.07,,,0.63,Wunderground v.1.15,2013-01-11 12:16:00,
2013-01-11 07:18:00,34.9,33.9,30.01,ESE,116,0.0,2.0,96,0.06,,,0.64,Wunderground v.1.15,2013-01-11 12:18:00,
2013-01-11 07:21:00,34.9,33.9,30.01,SSE,160,1.0,2.0,96,0.06,,,0.64,Wunderground v.1.15,2013-01-11 12:21:00,
2013-01-11 07:24:00,34.9,33.9,30.01,ESE,111,0.0,2.0,96,0.43,,,0.67,Wunderground v.1.15,2013-01-11 12:24:00,
2013-01-11 07:26:00,34.9,33.9,30.00,NE,43,0.0,3.0,96,0.49,,,0.69,Wunderground v.1.15,2013-01-11 12:26:00,
2013-01-11 07:29:00,34.9,33.9,30.00,ESE,114,0.0,3.0,96,0.29,,,0.70,Wunderground v.1.15,2013-01-11 12:29:00,
2013-01-11 07:31:00,34.9,33.9,30.00,East,98,0.0,2.0,96,0.29,,,0.71,Wunderground v.1.15,2013-01-11 12:31:00,
2013-01-11 07:34:00,34.9,33.9,30.00,East,89,0.0,2.0,96,0.19,,,0.72,Wunderground v.1.15,2013-01-11 12:34:00,
2013-01-11 07:36:00,34.9,33.9,30.00,WSW,243,1.0,4.0,96,0.18,,,0.73,Wunderground v.1.15,2013-01-11 12:36:00,
2013-01-11 07:37:00,34.9,33.9,30.00,WSW,246,0.0,4.0,96,0.18,,,0.73,Wunderground v.1.15,2013-01-11 12:37:00,
2013-01-11 07:39:00,34.9,33.9,30.00,WSW,243,0.0,4.0,96,0.16,,,0.73,Wunderground v.1.15,2013-01-11 12:39:00,
2013-01-11 07:41:00,35.0,34.0,30.00,East,100,1.0,2.0,96,0.10,,,0.73,Wunderground v.1.15,2013-01-11 12:41:00,
2013-01-11 07:42:00,35.0,34.0,30.00,ESE,107,1.0,2.0,96,0.09,,,0.73,Wunderground v.1.15,2013-01-11 12:42:00,
2013-01-11 07:44:00,35.0,34.0,30.00,East,84,2.0,4.0,96,0.07,,,0.73,Wunderground v.1.15,2013-01-11 12:44:00,
2013-01-11 07:47:00,35.1,34.1,30.00,East,84,1.0,4.0,96,0.05,,,0.73,Wunderground v.1.15,2013-01-11 12:47:00,
2013-01-11 07:49:00,35.0,34.0,30.00,SW,233,1.0,4.0,96,0.04,,,0.73,Wunderground v.1.15,2013-01-11 12:49:00,
2013-01-11 07:52:00,35.1,34.1,30.00,SSE,152,2.0,3.0,96,0.04,,,0.73,Wunderground v.1.15,2013-01-11 12:52:00,
2013-01-11 07:54:00,35.1,34.1,29.99,ENE,75,2.0,3.0,96,0.00,,,0.73,Wunderground v.1.15,2013-01-11 12:54:00,
2013-01-11 07:57:00,35.1,34.1,29.99,SSW,198,1.0,3.0,96,0.00,,,0.73,Wunderground v.1.15,2013-01-11 12:57:00,
2013-01-11 07:59:00,35.0,34.0,29.99,East,83,0.0,3.0,96,0.00,,,0.74,Wunderground v.1.15,2013-01-11 12:59:00,
2013-01-11 08:02:00,35.0,34.0,29.99,WSW,258,0.0,1.0,96,0.00,,,0.74,Wunderground v.1.15,2013-01-11 13:02:00,
2013-01-11 08:03:00,35.0,34.0,29.99,NE,47,1.0,1.0,96,0.00,,,0.74,Wunderground v.1.15,2013-01-11 13:03:00,
2013-01-11 08:05:00,35.1,34.1,29.99,SE,142,0.0,2.0,96,0.00,,,0.74,Wunderground v.1.15,2013-01-11 13:05:00,
2013-01-11 08:07:00,35.1,34.1,29.99,SE,142,0.0,2.0,96,0.00,,,0.74,Wunderground v.1.15,2013-01-11 13:07:00,
2013-01-11 08:08:00,35.1,34.1,29.99,SSE,155,2.0,2.0,96,0.00,,,0.74,Wunderground v.1.15,2013-01-11 13:08:00,
2013-01-11 08:10:00,35.1,34.1,29.98,SSE,153,1.0,1.0,96,0.00,,,0.74,Wunderground v.1.15,2013-01-11 13:10:00,
2013-01-11 08:12:00,35.1,34.1,29.98,ESE,104,1.0,2.0,96,0.00,,,0.74,Wunderground v.1.15,2013-01-11 13:12:00,
2013-01-11 08:14:00,35.2,34.2,29.98,SE,131,0.0,2.0,96,0.00,,,0.74,Wunderground v.1.15,2013-01-11 13:14:00,
2013-01-11 08:15:00,35.2,34.2,29.98,SE,131,0.0,2.0,96,0.00,,,0.74,Wunderground v.1.15,2013-01-11 13:15:00,
2013-01-11 08:17:00,35.2,34.2,29.97,ESE,120,0.0,2.0,96,0.00,,,0.75,Wunderground v.1.15,2013-01-11 13:17:00,
2013-01-11 08:19:00,35.3,34.3,29.97,NNE,18,0.0,2.0,96,0.00,,,0.75,Wunderground v.1.15,2013-01-11 13:19:00,
2013-01-11 08:21:00,35.3,34.3,29.97,NNE,18,0.0,0.0,96,0.00,,,0.75,Wunderground v.1.15,2013-01-11 13:21:00,
2013-01-11 08:22:00,35.3,34.3,29.97,ESE,118,0.0,2.0,96,0.00,,,0.75,Wunderground v.1.15,2013-01-11 13:22:00,
2013-01-11 08:24:00,35.3,34.3,29.96,East,101,0.0,2.0,96,0.00,,,0.75,Wunderground v.1.15,2013-01-11 13:24:00,
2013-01-11 08:26:00,35.4,34.4,29.96,ESE,102,0.0,2.0,96,0.00,,,0.75,Wunderground v.1.15,2013-01-11 13:26:00,
2013-01-11 08:27:00,35.4,34.4,29.96,ESE,103,0.0,2.0,96,0.00,,,0.75,Wunderground v.1.15,2013-01-11 13:27:00,
2013-01-11 08:29:00,35.4,34.4,29.96,SE,146,0.0,0.0,96,0.00,,,0.75,Wunderground v.1.15,2013-01-11 13:29:00,
2013-01-11 08:31:00,35.4,34.4,29.96,SE,146,0.0,0.0,96,0.04,,,0.76,Wunderground v.1.15,2013-01-11 13:31:00,
2013-01-11 08:32:00,35.4,34.4,29.95,East,89,1.0,1.0,96,0.04,,,0.76,Wunderground v.1.15,2013-01-11 13:32:00,
2013-01-11 08:35:00,35.5,34.5,29.95,East,91,1.0,3.0,96,0.04,,,0.76,Wunderground v.1.15,2013-01-11 13:35:00,
2013-01-11 08:36:00,35.6,34.6,29.94,East,79,1.0,3.0,96,0.04,,,0.76,Wunderground v.1.15,2013-01-11 13:36:00,
2013-01-11 08:37:00,35.6,34.6,29.95,East,91,1.0,3.0,96,0.04,,,0.76,Wunderground v.1.15,2013-01-11 13:37:00,
2013-01-11 08:38:00,35.7,34.7,29.95,East,90,1.0,3.0,96,0.04,,,0.76,Wunderground v.1.15,2013-01-11 13:38:00,
2013-01-11 08:40:00,35.7,34.9,29.94,SW,225,1.0,1.0,97,0.04,,,0.76,Wunderground v.1.15,2013-01-11 13:40:00,
2013-01-11 08:41:00,35.7,34.7,29.94,SSE,166,0.0,1.0,96,0.04,,,0.76,Wunderground v.1.15,2013-01-11 13:41:00,
2013-01-11 08:43:00,35.7,34.7,29.93,SE,127,1.0,3.0,96,0.04,,,0.76,Wunderground v.1.15,2013-01-11 13:43:00,
2013-01-11 08:45:00,35.7,34.7,29.92,East,86,1.0,3.0,96,0.04,,,0.76,Wunderground v.1.15,2013-01-11 13:45:00,
2013-01-11 08:46:00,35.8,34.8,29.93,ENE,66,1.0,3.0,96,0.04,,,0.76,Wunderground v.1.15,2013-01-11 13:46:00,
2013-01-11 08:48:00,35.8,34.8,29.92,ESE,121,0.0,3.0,96,0.00,,,0.76,Wunderground v.1.15,2013-01-11 13:48:00,
2013-01-11 08:50:00,35.8,34.8,29.93,SE,146,3.0,3.0,96,0.00,,,0.76,Wunderground v.1.15,2013-01-11 13:50:00,
2013-01-11 08:51:00,35.9,35.1,29.93,East,90,2.0,3.0,97,0.00,,,0.76,Wunderground v.1.15,2013-01-11 13:51:00,
2013-01-11 08:53:00,36.1,35.3,29.94,SSW,207,2.0,3.0,97,0.00,,,0.76,Wunderground v.1.15,2013-01-11 13:53:00,
2013-01-11 08:55:00,36.3,35.5,29.94,SW,226,0.0,4.0,97,0.00,,,0.76,Wunderground v.1.15,2013-01-11 13:55:00,
2013-01-11 08:56:00,36.4,35.6,29.93,SE,146,0.0,4.0,97,0.00,,,0.76,Wunderground v.1.15,2013-01-11 13:56:00,
2013-01-11 08:58:00,36.5,35.7,29.93,NE,56,1.0,4.0,97,0.00,,,0.76,Wunderground v.1.15,2013-01-11 13:58:00,
2013-01-11 08:59:00,36.6,35.8,29.93,SSE,166,1.0,4.0,97,0.00,,,0.76,Wunderground v.1.15,2013-01-11 13:59:00,
2013-01-11 09:00:00,36.8,36.0,29.93,SE,143,1.0,1.0,97,0.00,,,0.76,Wunderground v.1.15,2013-01-11 14:00:00,
2013-01-11 09:02:00,36.9,36.1,29.92,WSW,240,1.0,2.0,97,0.00,,,0.76,Wunderground v.1.15,2013-01-11 14:02:00,
2013-01-11 09:03:00,37.0,36.2,29.93,WSW,246,0.0,2.0,97,0.00,,,0.76,Wunderground v.1.15,2013-01-11 14:03:00,
2013-01-11 09:04:00,37.1,36.3,29.93,WSW,246,0.0,2.0,97,0.00,,,0.76,Wunderground v.1.15,2013-01-11 14:04:00,
2013-01-11 09:06:00,37.2,36.4,29.93,SSW,193,0.0,3.0,97,0.00,,,0.76,Wunderground v.1.15,2013-01-11 14:06:00,
2013-01-11 09:07:00,37.3,36.5,29.93,South,169,0.0,3.0,97,0.00,,,0.76,Wunderground v.1.15,2013-01-11 14:07:00,
2013-01-11 09:09:00,37.3,36.5,29.93,SSW,210,0.0,3.0,97,0.00,,,0.76,Wunderground v.1.15,2013-01-11 14:09:00,
2013-01-11 09:11:00,37.5,36.7,29.92,SE,143,1.0,6.0,97,0.00,,,0.76,Wunderground v.1.15,2013-01-11 14:11:00,
2013-01-11 09:12:00,37.6,36.8,29.92,SSE,150,0.0,6.0,97,0.00,,,0.76,Wunderground v.1.15,2013-01-11 14:12:00,
2013-01-11 09:14:00,37.7,36.9,29.92,SSE,167,0.0,6.0,97,0.00,,,0.76,Wunderground v.1.15,2013-01-11 14:14:00,
2013-01-11 09:16:00,37.8,37.0,29.91,SSE,166,2.0,8.0,97,0.00,,,0.76,Wunderground v.1.15,2013-01-11 14:16:00,
2013-01-11 09:17:00,38.0,37.2,29.91,SSE,165,2.0,8.0,97,0.00,,,0.76,Wunderground v.1.15,2013-01-11 14:17:00,
2013-01-11 09:19:00,38.1,37.3,29.90,SW,236,2.0,8.0,97,0.00,,,0.76,Wunderground v.1.15,2013-01-11 14:19:00,
2013-01-11 09:21:00,38.3,37.5,29.90,SE,143,7.0,9.0,97,0.00,,,0.76,Wunderground v.1.15,2013-01-11 14:21:00,
2013-01-11 09:23:00,38.5,37.7,29.90,SE,131,1.0,9.0,97,0.00,,,0.76,Wunderground v.1.15,2013-01-11 14:23:00,
2013-01-11 09:24:00,38.6,37.8,29.90,SSE,151,1.0,9.0,97,0.00,,,0.76,Wunderground v.1.15,2013-01-11 14:24:00,
2013-01-11 09:25:00,38.6,37.8,29.89,East,99,0.0,9.0,97,0.00,,,0.76,Wunderground v.1.15,2013-01-11 14:25:00,
2013-01-11 09:26:00,38.7,37.9,29.89,SW,214,3.0,9.0,97,0.00,,,0.76,Wunderground v.1.15,2013-01-11 14:26:00,
2013-01-11 09:28:00,38.7,37.9,29.89,East,96,1.0,9.0,97,0.00,,,0.76,Wunderground v.1.15,2013-01-11 14:28:00,
2013-01-11 09:29:00,38.8,38.0,29.89,SSE,158,5.0,9.0,97,0.00,,,0.76,Wunderground v.1.15,2013-01-11 14:29:00,
2013-01-11 09:30:00,38.8,38.0,29.89,SW,225,4.0,5.0,97,0.00,,,0.76,Wunderground v.1.15,2013-01-11 14:30:00,
2013-01-11 09:31:00,38.9,38.1,29.89,SSE,151,2.0,5.0,97,0.00,,,0.76,Wunderground v.1.15,2013-01-11 14:31:00,
2013-01-11 09:33:00,39.0,38.2,29.89,SSE,150,0.0,5.0,97,0.00,,,0.76,Wunderground v.1.15,2013-01-11 14:33:00,
2013-01-11 09:34:00,39.1,38.3,29.89,ESE,108,0.0,5.0,97,0.00,,,0.76,Wunderground v.1.15,2013-01-11 14:34:00,
2013-01-11 09:35:00,39.1,38.3,29.89,ESE,109,0.0,5.0,97,0.00,,,0.76,Wunderground v.1.15,2013-01-11 14:35:00,
2013-01-11 09:37:00,39.2,38.4,29.88,East,86,3.0,6.0,97,0.00,,,0.76,Wunderground v.1.15,2013-01-11 14:37:00,
2013-01-11 09:38:00,39.3,38.5,29.88,ENE,78,1.0,6.0,97,0.00,,,0.76,Wunderground v.1.15,2013-01-11 14:38:00,
2013-01-11 09:40:00,39.4,38.6,29.88,SSE,152,0.0,2.0,97,0.00,,,0.76,Wunderground v.1.15,2013-01-11 14:40:00,
2013-01-11 09:42:00,39.5,38.7,29.88,SSE,148,2.0,5.0,97,0.00,,,0.76,Wunderground v.1.15,2013-01-11 14:42:00,
2013-01-11 09:43:00,39.5,38.7,29.87,East,82,2.0,5.0,97,0.00,,,0.76,Wunderground v.1.15,2013-01-11 14:43:00,
2013-01-11 09:45:00,39.6,38.8,29.87,ENE,76,1.0,5.0,97,0.00,,,0.76,Wunderground v.1.15,2013-01-11 14:45:00,
2013-01-11 09:47:00,39.5,38.7,29.87,WSW,257,1.0,5.0,97,0.00,,,0.76,Wunderground v.1.15,2013-01-11 14:47:00,
2013-01-11 09:48:00,39.5,38.7,29.87,South,191,1.0,5.0,97,0.00,,,0.76,Wunderground v.1.15,2013-01-11 14:48:00,
2013-01-11 09:50:00,39.6,38.8,29.88,NE,41,1.0,2.0,97,0.00,,,0.76,Wunderground v.1.15,2013-01-11 14:50:00,
2013-01-11 09:51:00,39.7,38.9,29.87,NE,39,0.0,2.0,97,0.00,,,0.76,Wunderground v.1.15,2013-01-11 14:51:00,
2013-01-11 09:52:00,39.7,38.9,29.87,NE,41,0.0,2.0,97,0.00,,,0.76,Wunderground v.1.15,2013-01-11 14:52:00,
2013-01-11 09:53:00,39.7,38.9,29.87,WNW,290,0.0,2.0,97,0.00,,,0.76,Wunderground v.1.15,2013-01-11 14:53:00,
2013-01-11 09:55:00,39.7,38.9,29.87,SSE,150,0.0,3.0,97,0.00,,,0.76,Wunderground v.1.15,2013-01-11 14:55:00,
2013-01-11 09:56:00,39.8,39.0,29.87,SSE,150,2.0,3.0,97,0.00,,,0.76,Wunderground v.1.15,2013-01-11 14:56:00,
2013-01-11 09:57:00,39.8,39.0,29.87,SE,140,1.0,3.0,97,0.00,,,0.76,Wunderground v.1.15,2013-01-11 14:57:00,
2013-01-11 09:58:00,39.9,39.1,29.87,East,82,0.0,3.0,97,0.00,,,0.76,Wunderground v.1.15,2013-01-11 14:58:00,
2013-01-11 10:00:00,39.9,39.1,29.87,SSW,201,1.0,1.0,97,0.00,,,0.76,Wunderground v.1.15,2013-01-11 15:00:00,
2013-01-11 10:01:00,39.9,39.1,29.88,SW,236,1.0,3.0,97,0.00,,,0.76,Wunderground v.1.15,2013-01-11 15:01:00,
2013-01-11 10:02:00,40.0,39.2,29.88,SSW,205,2.0,3.0,97,0.00,,,0.76,Wunderground v.1.15,2013-01-11 15:02:00,
2013-01-11 10:04:00,40.0,39.2,29.88,SE,146,0.0,3.0,97,0.00,,,0.76,Wunderground v.1.15,2013-01-11 15:04:00,
2013-01-11 10:05:00,40.1,39.3,29.89,West,267,1.0,6.0,97,0.00,,,0.76,Wunderground v.1.15,2013-01-11 15:05:00,
2013-01-11 10:06:00,40.1,39.3,29.89,SSW,208,1.0,6.0,97,0.00,,,0.76,Wunderground v.1.15,2013-01-11 15:06:00,
2013-01-11 10:07:00,40.2,39.4,29.89,SW,219,0.0,6.0,97,0.00,,,0.76,Wunderground v.1.15,2013-01-11 15:07:00,
2013-01-11 10:09:00,40.2,39.4,29.89,SSW,204,0.0,6.0,97,0.00,,,0.76,Wunderground v.1.15,2013-01-11 15:09:00,
2013-01-11 10:11:00,40.3,39.5,29.90,WSW,243,0.0,2.0,97,0.00,,,0.76,Wunderground v.1.15,2013-01-11 15:11:00,
2013-01-11 10:12:00,40.4,39.6,29.90,SW,214,0.0,2.0,97,0.00,,,0.76,Wunderground v.1.15,2013-01-11 15:12:00,
2013-01-11 10:14:00,40.4,39.6,29.90,SW,229,0.0,2.0,97,0.00,,,0.76,Wunderground v.1.15,2013-01-11 15:14:00,
2013-01-11 10:16:00,40.5,39.7,29.90,SSW,199,0.0,2.0,97,0.00,,,0.76,Wunderground v.1.15,2013-01-11 15:16:00,
2013-01-11 10:18:00,40.5,39.7,29.90,SW,224,0.0,2.0,97,0.00,,,0.76,Wunderground v.1.15,2013-01-11 15:18:00,
2013-01-11 10:20:00,40.6,39.8,29.89,South,188,1.0,1.0,97,0.00,,,0.76,Wunderground v.1.15,2013-01-11 15:20:00,
2013-01-11 10:21:00,40.6,39.8,29.89,SW,231,0.0,2.0,97,0.00,,,0.76,Wunderground v.1.15,2013-01-11 15:21:00,
2013-01-11 10:23:00,40.6,39.8,29.89,South,188,0.0,2.0,97,0.00,,,0.76,Wunderground v.1.15,2013-01-11 15:23:00,
2013-01-11 10:25:00,40.7,39.9,29.89,SW,221,0.0,4.0,97,0.00,,,0.76,Wunderground v.1.15,2013-01-11 15:25:00,
2013-01-11 10:26:00,40.7,39.9,29.89,SSE,156,0.0,4.0,97,0.00,,,0.76,Wunderground v.1.15,2013-01-11 15:26:00,
2013-01-11 10:28:00,40.8,40.0,29.89,SW,221,0.0,4.0,97,0.00,,,0.76,Wunderground v.1.15,2013-01-11 15:28:00,
2013-01-11 10:30:00,40.8,40.0,29.89,SW,222,0.0,1.0,97,0.00,,,0.76,Wunderground v.1.15,2013-01-11 15:30:00,
2013-01-11 10:31:00,40.8,40.0,29.89,SSE,149,1.0,1.0,97,0.00,,,0.76,Wunderground v.1.15,2013-01-11 15:31:00,
2013-01-11 10:32:00,40.8,40.0,29.89,SSW,211,0.0,1.0,97,0.00,,,0.76,Wunderground v.1.15,2013-01-11 15:32:00,
2013-01-11 10:33:00,40.9,40.1,29.89,SW,232,0.0,1.0,97,0.00,,,0.76,Wunderground v.1.15,2013-01-11 15:33:00,
2013-01-11 10:36:00,40.9,40.1,29.88,West,266,2.0,2.0,97,0.00,,,0.76,Wunderground v.1.15,2013-01-11 15:36:00,
2013-01-11 10:37:00,41.0,40.2,29.88,South,170,1.0,2.0,97,0.00,,,0.76,Wunderground v.1.15,2013-01-11 15:37:00,
2013-01-11 10:38:00,41.0,40.2,29.88,SSE,155,1.0,2.0,97,0.00,,,0.76,Wunderground v.1.15,2013-01-11 15:38:00,
2013-01-11 10:41:00,41.1,40.3,29.88,SSE,156,0.0,1.0,97,0.00,,,0.76,Wunderground v.1.15,2013-01-11 15:41:00,
2013-01-11 10:42:00,41.1,40.3,29.88,WSW,240,1.0,4.0,97,0.00,,,0.76,Wunderground v.1.15,2013-01-11 15:42:00,
2013-01-11 10:43:00,41.1,40.3,29.88,ESE,113,0.0,4.0,97,0.00,,,0.76,Wunderground v.1.15,2013-01-11 15:43:00,
2013-01-11 10:46:00,41.1,40.3,29.88,South,181,1.0,4.0,97,0.00,,,0.76,Wunderground v.1.15,2013-01-11 15:46:00,
2013-01-11 10:48:00,41.2,40.4,29.88,SW,219,0.0,4.0,97,0.00,,,0.76,Wunderground v.1.15,2013-01-11 15:48:00,
2013-01-11 10:51:00,41.2,40.4,29.88,SW,233,0.0,1.0,97,0.00,,,0.76,Wunderground v.1.15,2013-01-11 15:51:00,
2013-01-11 10:52:00,41.3,40.5,29.88,SW,233,0.0,1.0,97,0.00,,,0.76,Wunderground v.1.15,2013-01-11 15:52:00,
2013-01-11 10:53:00,41.3,40.5,29.88,SW,233,1.0,1.0,97,0.00,,,0.76,Wunderground v.1.15,2013-01-11 15:53:00,
2013-01-11 10:56:00,41.4,40.6,29.89,SW,214,1.0,2.0,97,0.00,,,0.76,Wunderground v.1.15,2013-01-11 15:56:00,
2013-01-11 10:57:00,41.4,40.6,29.89,SSW,212,0.0,2.0,97,0.00,,,0.76,Wunderground v.1.15,2013-01-11 15:57:00,
2013-01-11 10:58:00,41.5,40.7,29.89,SE,134,1.0,2.0,97,0.00,,,0.76,Wunderground v.1.15,2013-01-11 15:58:00,
2013-01-11 11:01:00,41.6,40.8,29.89,SE,128,0.0,0.0,97,0.00,,,0.76,Wunderground v.1.15,2013-01-11 16:01:00,
2013-01-11 11:02:00,41.5,40.7,29.89,SE,128,0.0,1.0,97,0.00,,,0.76,Wunderground v.1.15,2013-01-11 16:02:00,
2013-01-11 11:03:00,41.6,40.8,29.89,SW,236,0.0,3.0,97,0.00,,,0.76,Wunderground v.1.15,2013-01-11 16:03:00,
2013-01-11 11:06:00,41.7,40.9,29.89,SW,219,0.0,3.0,97,0.00,,,0.76,Wunderground v.1.15,2013-01-11 16:06:00,
2013-01-11 11:07:00,41.8,41.0,29.89,South,178,0.0,3.0,97,0.00,,,0.76,Wunderground v.1.15,2013-01-11 16:07:00,
2013-01-11 11:08:00,41.8,41.0,29.89,South,179,0.0,3.0,97,0.00,,,0.76,Wunderground v.1.15,2013-01-11 16:08:00,
2013-01-11 11:11:00,41.8,41.0,29.89,SW,225,0.0,3.0,97,0.00,,,0.76,Wunderground v.1.15,2013-01-11 16:11:00,
2013-01-11 11:12:00,41.9,41.1,29.89,SW,226,0.0,3.0,97,0.00,,,0.76,Wunderground v.1.15,2013-01-11 16:12:00,
2013-01-11 11:13:00,41.9,41.1,29.89,South,177,0.0,3.0,97,0.00,,,0.76,Wunderground v.1.15,2013-01-11 16:13:00,
2013-01-11 11:16:00,41.9,41.1,29.89,South,183,0.0,3.0,97,0.00,,,0.76,Wunderground v.1.15,2013-01-11 16:16:00,
2013-01-11 11:17:00,42.0,41.2,29.89,SW,224,1.0,3.0,97,0.00,,,0.76,Wunderground v.1.15,2013-01-11 16:17:00,
2013-01-11 11:18:00,42.0,41.2,29.88,South,174,1.0,3.0,97,0.00,,,0.76,Wunderground v.1.15,2013-01-11 16:18:00,
2013-01-11 11:19:00,42.0,41.2,29.88,South,173,1.0,3.0,97,0.00,,,0.76,Wunderground v.1.15,2013-01-11 16:19:00,
2013-01-11 11:22:00,42.0,41.2,29.88,SSE,148,0.0,1.0,97,0.00,,,0.76,Wunderground v.1.15,2013-01-11 16:22:00,
2013-01-11 11:24:00,42.0,41.2,29.88,SSE,148,0.0,1.0,97,0.00,,,0.76,Wunderground v.1.15,2013-01-11 16:24:00,
2013-01-11 11:27:00,42.2,41.4,29.88,SW,225,0.0,1.0,97,0.00,,,0.76,Wunderground v.1.15,2013-01-11 16:27:00,
2013-01-11 11:29:00,42.2,41.4,29.88,South,174,0.0,1.0,97,0.00,,,0.76,Wunderground v.1.15,2013-01-11 16:29:00,
2013-01-11 11:32:00,42.1,41.3,29.88,SSE,149,0.0,0.0,97,0.00,,,0.76,Wunderground v.1.15,2013-01-11 16:32:00,
2013-01-11 11:34:00,42.1,41.3,29.88,SSE,156,0.0,1.0,97,0.00,,,0.76,Wunderground v.1.15,2013-01-11 16:34:00,
2013-01-11 11:37:00,42.2,41.4,29.87,South,190,0.0,2.0,97,0.00,,,0.76,Wunderground v.1.15,2013-01-11 16:37:00,
2013-01-11 11:39:00,42.2,41.4,29.87,SE,143,0.0,2.0,97,0.00,,,0.76,Wunderground v.1.15,2013-01-11 16:39:00,
2013-01-11 11:42:00,42.3,41.8,29.87,SSW,213,0.0,1.0,98,0.00,,,0.76,Wunderground v.1.15,2013-01-11 16:42:00,
2013-01-11 11:44:00,42.4,41.9,29.87,WSW,249,1.0,3.0,98,0.00,,,0.76,Wunderground v.1.15,2013-01-11 16:44:00,
2013-01-11 11:47:00,42.6,42.1,29.87,WSW,253,1.0,3.0,98,0.00,,,0.76,Wunderground v.1.15,2013-01-11 16:47:00,
2013-01-11 11:48:00,42.6,42.1,29.87,WSW,253,1.0,3.0,98,0.00,,,0.76,Wunderground v.1.15,2013-01-11 16:48:00,
2013-01-11 11:50:00,42.7,42.2,29.87,SW,228,0.0,0.0,98,0.00,,,0.76,Wunderground v.1.15,2013-01-11 16:50:00,
2013-01-11 11:53:00,42.8,42.3,29.87,SSE,163,1.0,1.0,98,0.00,,,0.76,Wunderground v.1.15,2013-01-11 16:53:00,
2013-01-11 11:55:00,42.9,42.4,29.87,WSW,246,2.0,2.0,98,0.00,,,0.76,Wunderground v.1.15,2013-01-11 16:55:00,
2013-01-11 11:58:00,43.1,42.6,29.86,SSW,211,0.0,3.0,98,0.00,,,0.76,Wunderground v.1.15,2013-01-11 16:58:00,
2013-01-11 12:00:00,43.2,42.7,29.86,WSW,246,1.0,2.0,98,0.00,,,0.76,Wunderground v.1.15,2013-01-11 17:00:00,
2013-01-11 12:03:00,43.4,42.9,29.86,SSE,156,1.0,2.0,98,0.00,,,0.76,Wunderground v.1.15,2013-01-11 17:03:00,
2013-01-11 12:05:00,43.5,43.0,29.86,WSW,248,1.0,2.0,98,0.00,,,0.76,Wunderground v.1.15,2013-01-11 17:05:00,
2013-01-11 12:06:00,43.5,43.0,29.86,SW,232,0.0,2.0,98,0.00,,,0.76,Wunderground v.1.15,2013-01-11 17:06:00,
2013-01-11 12:08:00,43.6,43.1,29.86,South,181,0.0,2.0,98,0.00,,,0.76,Wunderground v.1.15,2013-01-11 17:08:00,
2013-01-11 12:10:00,43.6,43.1,29.86,South,190,0.0,1.0,98,0.00,,,0.76,Wunderground v.1.15,2013-01-11 17:10:00,
2013-01-11 12:12:00,43.7,43.2,29.86,SW,217,1.0,1.0,98,0.00,,,0.76,Wunderground v.1.15,2013-01-11 17:12:00,
2013-01-11 12:13:00,43.8,43.3,29.86,SW,214,0.0,1.0,98,0.00,,,0.76,Wunderground v.1.15,2013-01-11 17:13:00,
2013-01-11 12:16:00,43.9,43.4,29.85,SW,235,0.0,2.0,98,0.00,,,0.76,Wunderground v.1.15,2013-01-11 17:16:00,
2013-01-11 12:17:00,44.0,43.5,29.85,SE,141,0.0,2.0,98,0.00,,,0.76,Wunderground v.1.15,2013-01-11 17:17:00,
2013-01-11 12:18:00,44.1,43.6,29.85,South,181,1.0,2.0,98,0.00,,,0.76,Wunderground v.1.15,2013-01-11 17:18:00,
2013-01-11 12:19:00,44.2,43.7,29.85,South,181,0.0,2.0,98,0.00,,,0.76,Wunderground v.1.15,2013-01-11 17:19:00,
2013-01-11 12:21:00,44.4,43.9,29.85,WSW,252,0.0,2.0,98,0.00,,,0.76,Wunderground v.1.15,2013-01-11 17:21:00,
2013-01-11 12:22:00,44.4,43.9,29.85,WSW,252,1.0,2.0,98,0.00,,,0.76,Wunderground v.1.15,2013-01-11 17:22:00,
2013-01-11 12:23:00,44.5,44.0,29.85,WSW,238,1.0,2.0,98,0.00,,,0.76,Wunderground v.1.15,2013-01-11 17:23:00,
2013-01-11 12:24:00,44.6,44.1,29.85,SE,129,1.0,2.0,98,0.00,,,0.76,Wunderground v.1.15,2013-01-11 17:24:00,
2013-01-11 12:26:00,44.7,44.2,29.84,West,262,1.0,3.0,98,0.00,,,0.76,Wunderground v.1.15,2013-01-11 17:26:00,
2013-01-11 12:27:00,44.7,44.2,29.84,SSW,194,1.0,3.0,98,0.00,,,0.76,Wunderground v.1.15,2013-01-11 17:27:00,
2013-01-11 12:28:00,44.8,44.3,29.84,WSW,239,0.0,4.0,98,0.00,,,0.76,Wunderground v.1.15,2013-01-11 17:28:00,
2013-01-11 12:29:00,44.9,44.4,29.84,SW,233,1.0,4.0,98,0.00,,,0.76,Wunderground v.1.15,2013-01-11 17:29:00,
2013-01-11 12:31:00,45.1,44.6,29.84,SSW,213,2.0,3.0,98,0.00,,,0.76,Wunderground v.1.15,2013-01-11 17:31:00,
2013-01-11 12:32:00,45.3,44.8,29.83,SSW,210,1.0,4.0,98,0.00,,,0.76,Wunderground v.1.15,2013-01-11 17:32:00,
2013-01-11 12:34:00,45.4,44.9,29.83,SSE,158,0.0,4.0,98,0.00,,,0.76,Wunderground v.1.15,2013-01-11 17:34:00,
2013-01-11 12:37:00,45.6,45.1,29.83,SW,235,2.0,5.0,98,0.00,,,0.76,Wunderground v.1.15,2013-01-11 17:37:00,
2013-01-11 12:39:00,45.8,45.3,29.84,SE,143,0.0,7.0,98,0.00,,,0.76,Wunderground v.1.15,2013-01-11 17:39:00,
2013-01-11 12:40:00,45.9,45.4,29.83,SW,222,3.0,5.0,98,0.00,,,0.76,Wunderground v.1.15,2013-01-11 17:40:00,
2013-01-11 12:42:00,46.1,45.6,29.83,South,186,0.0,7.0,98,0.00,,,0.76,Wunderground v.1.15,2013-01-11 17:42:00,
2013-01-11 12:44:00,46.1,45.6,29.83,ENE,69,2.0,7.0,98,0.00,,,0.76,Wunderground v.1.15,2013-01-11 17:44:00,
2013-01-11 12:45:00,46.1,45.6,29.83,NW,315,2.0,7.0,98,0.00,,,0.76,Wunderground v.1.15,2013-01-11 17:45:00,
2013-01-11 12:47:00,46.3,45.8,29.83,SW,234,3.0,7.0,98,0.00,,,0.76,Wunderground v.1.15,2013-01-11 17:47:00,
2013-01-11 12:49:00,46.4,45.9,29.83,SE,136,2.0,7.0,98,0.00,,,0.76,Wunderground v.1.15,2013-01-11 17:49:00,
2013-01-11 12:50:00,46.4,45.9,29.83,SSW,193,2.0,3.0,98,0.00,,,0.76,Wunderground v.1.15,2013-01-11 17:50:00,
2013-01-11 12:52:00,46.5,46.0,29.83,South,176,1.0,5.0,98,0.00,,,0.76,Wunderground v.1.15,2013-01-11 17:52:00,
2013-01-11 12:53:00,46.5,46.0,29.83,SW,226,2.0,5.0,98,0.00,,,0.76,Wunderground v.1.15,2013-01-11 17:53:00,
2013-01-11 12:54:00,46.5,46.0,29.83,SE,141,5.0,8.0,98,0.00,,,0.76,Wunderground v.1.15,2013-01-11 17:54:00,
2013-01-11 12:55:00,46.5,46.0,29.83,SW,219,2.0,8.0,98,0.00,,,0.76,Wunderground v.1.15,2013-01-11 17:55:00,
2013-01-11 12:57:00,46.6,46.1,29.83,WSW,253,2.0,8.0,98,0.00,,,0.76,Wunderground v.1.15,2013-01-11 17:57:00,
2013-01-11 12:58:00,46.6,46.1,29.83,SW,215,1.0,8.0,98,0.00,,,0.76,Wunderground v.1.15,2013-01-11 17:58:00,
2013-01-11 12:59:00,46.6,46.1,29.83,WSW,249,0.0,8.0,98,0.00,,,0.76,Wunderground v.1.15,2013-01-11 17:59:00,
2013-01-11 13:01:00,46.5,46.0,29.83,SW,224,1.0,2.0,98,0.00,,,0.76,Wunderground v.1.15,2013-01-11 18:01:00,
2013-01-11 13:03:00,46.5,46.0,29.83,SW,224,2.0,3.0,98,0.00,,,0.76,Wunderground v.1.15,2013-01-11 18:03:00,
2013-01-11 13:04:00,46.6,46.1,29.83,SW,226,3.0,5.0,98,0.00,,,0.76,Wunderground v.1.15,2013-01-11 18:04:00,
2013-01-11 13:06:00,46.6,46.1,29.83,WSW,256,2.0,5.0,98,0.00,,,0.76,Wunderground v.1.15,2013-01-11 18:06:00,
2013-01-11 13:08:00,46.7,46.2,29.83,WSW,239,2.0,12.0,98,0.00,,,0.76,Wunderground v.1.15,2013-01-11 18:08:00,
2013-01-11 13:09:00,46.8,46.3,29.83,SW,231,1.0,12.0,98,0.00,,,0.76,Wunderground v.1.15,2013-01-11 18:09:00,
2013-01-11 13:11:00,46.9,46.4,29.83,WSW,243,3.0,7.0,98,0.00,,,0.76,Wunderground v.1.15,2013-01-11 18:11:00,
2013-01-11 13:13:00,46.9,46.4,29.83,NW,307,0.0,7.0,98,0.00,,,0.76,Wunderground v.1.15,2013-01-11 18:13:00,
2013-01-11 13:14:00,46.9,46.4,29.83,West,270,0.0,7.0,98,0.00,,,0.76,Wunderground v.1.15,2013-01-11 18:14:00,
2013-01-11 13:16:00,46.9,46.4,29.83,NE,50,1.0,7.0,98,0.00,,,0.76,Wunderground v.1.15,2013-01-11 18:16:00,
2013-01-11 13:18:00,47.0,46.5,29.83,WSW,243,3.0,7.0,98,0.00,,,0.76,Wunderground v.1.15,2013-01-11 18:18:00,
2013-01-11 13:19:00,47.0,46.5,29.83,SW,217,2.0,7.0,98,0.00,,,0.76,Wunderground v.1.15,2013-01-11 18:19:00,
2013-01-11 13:22:00,47.1,46.6,29.83,WSW,238,3.0,4.0,98,0.00,,,0.76,Wunderground v.1.15,2013-01-11 18:22:00,
2013-01-11 13:23:00,47.1,46.6,29.82,SW,222,0.0,4.0,98,0.00,,,0.76,Wunderground v.1.15,2013-01-11 18:23:00,
2013-01-11 13:24:00,47.1,46.6,29.82,SW,222,0.0,4.0,98,0.00,,,0.76,Wunderground v.1.15,2013-01-11 18:24:00,
2013-01-11 13:27:00,47.3,46.8,29.82,WSW,242,1.0,5.0,98,0.00,,,0.76,Wunderground v.1.15,2013-01-11 18:27:00,
2013-01-11 13:29:00,47.4,46.9,29.82,WSW,256,3.0,5.0,98,0.00,,,0.76,Wunderground v.1.15,2013-01-11 18:29:00,
2013-01-11 13:32:00,47.7,47.2,29.82,SW,236,2.0,4.0,98,0.00,,,0.76,Wunderground v.1.15,2013-01-11 18:32:00,
2013-01-11 13:34:00,47.7,47.2,29.82,SW,219,1.0,4.0,98,0.00,,,0.76,Wunderground v.1.15,2013-01-11 18:34:00,
2013-01-11 13:37:00,47.9,47.4,29.82,SW,236,3.0,4.0,98,0.00,,,0.76,Wunderground v.1.15,2013-01-11 18:37:00,
2013-01-11 13:39:00,48.0,47.5,29.82,SW,236,1.0,6.0,98,0.00,,,0.76,Wunderground v.1.15,2013-01-11 18:39:00,
2013-01-11 13:40:00,48.1,47.6,29.82,WSW,239,4.0,4.0,98,0.00,,,0.76,Wunderground v.1.15,2013-01-11 18:40:00,
2013-01-11 13:42:00,48.2,47.7,29.82,SW,232,2.0,4.0,98,0.00,,,0.76,Wunderground v.1.15,2013-01-11 18:42:00,
2013-01-11 13:44:00,48.3,47.8,29.82,SE,126,0.0,4.0,98,0.00,,,0.76,Wunderground v.1.15,2013-01-11 18:44:00,
2013-01-11 13:45:00,48.3,47.8,29.82,WSW,240,0.0,4.0,98,0.00,,,0.76,Wunderground v.1.15,2013-01-11 18:45:00,
2013-01-11 13:47:00,48.4,47.9,29.82,WSW,246,2.0,4.0,98,0.00,,,0.76,Wunderground v.1.15,2013-01-11 18:47:00,
2013-01-11 13:49:00,48.5,48.0,29.82,WSW,243,0.0,5.0,98,0.00,,,0.76,Wunderground v.1.15,2013-01-11 18:49:00,
2013-01-11 13:50:00,48.5,48.0,29.82,WSW,246,1.0,1.0,98,0.00,,,0.76,Wunderground v.1.15,2013-01-11 18:50:00,
2013-01-11 13:53:00,48.6,48.1,29.82,WSW,246,0.0,2.0,98,0.00,,,0.76,Wunderground v.1.15,2013-01-11 18:53:00,
2013-01-11 13:54:00,48.6,48.1,29.82,ESE,112,0.0,4.0,98,0.00,,,0.76,Wunderground v.1.15,2013-01-11 18:54:00,
2013-01-11 13:55:00,48.6,48.1,29.82,SW,219,2.0,4.0,98,0.00,,,0.76,Wunderground v.1.15,2013-01-11 18:55:00,
2013-01-11 13:58:00,48.6,48.1,29.82,SW,214,3.0,4.0,98,0.00,,,0.76,Wunderground v.1.15,2013-01-11 18:58:00,
2013-01-11 13:59:00,48.7,48.2,29.82,South,190,4.0,6.0,98,0.00,,,0.76,Wunderground v.1.15,2013-01-11 18:59:00,
2013-01-11 14:00:00,48.7,48.2,29.82,SE,145,1.0,4.0,98,0.00,,,0.76,Wunderground v.1.15,2013-01-11 19:00:00,
2013-01-11 14:03:00,48.7,48.2,29.82,SE,136,0.0,5.0,98,0.00,,,0.76,Wunderground v.1.15,2013-01-11 19:03:00,
2013-01-11 14:05:00,48.8,48.3,29.82,WSW,246,5.0,6.0,98,0.00,,,0.76,Wunderground v.1.15,2013-01-11 19:05:00,
2013-01-11 14:08:00,48.9,48.4,29.82,SSE,158,2.0,7.0,98,0.00,,,0.76,Wunderground v.1.15,2013-01-11 19:08:00,
2013-01-11 14:10:00,48.8,48.3,29.82,SW,222,2.0,2.0,98,0.00,,,0.76,Wunderground v.1.15,2013-01-11 19:10:00,
2013-01-11 14:13:00,48.8,48.3,29.82,SSW,197,0.0,6.0,98,0.00,,,0.76,Wunderground v.1.15,2013-01-11 19:13:00,
2013-01-11 14:15:00,48.9,48.4,29.82,SSE,155,2.0,6.0,98,0.00,,,0.76,Wunderground v.1.15,2013-01-11 19:15:00,
2013-01-11 14:18:00,49.0,48.5,29.82,WNW,284,0.0,9.0,98,0.00,,,0.76,Wunderground v.1.15,2013-01-11 19:18:00,
2013-01-11 14:20:00,49.0,48.5,29.83,WSW,257,1.0,3.0,98,0.00,,,0.76,Wunderground v.1.15,2013-01-11 19:20:00,
2013-01-11 14:21:00,49.0,48.5,29.83,WSW,241,1.0,3.0,98,0.00,,,0.76,Wunderground v.1.15,2013-01-11 19:21:00,
2013-01-11 14:23:00,49.0,48.5,29.83,SE,138,3.0,4.0,98,0.00,,,0.76,Wunderground v.1.15,2013-01-11 19:23:00,
2013-01-11 14:25:00,49.1,48.6,29.83,South,179,1.0,7.0,98,0.00,,,0.76,Wunderground v.1.15,2013-01-11 19:25:00,
2013-01-11 14:26:00,49.1,48.6,29.83,ESE,108,0.0,7.0,98,0.00,,,0.76,Wunderground v.1.15,2013-01-11 19:26:00,
2013-01-11 14:28:00,49.2,48.7,29.83,SW,222,2.0,7.0,98,0.00,,,0.76,Wunderground v.1.15,2013-01-11 19:28:00,
2013-01-11 14:31:00,49.2,48.7,29.83,SW,232,2.0,3.0,98,0.00,,,0.76,Wunderground v.1.15,2013-01-11 19:31:00,
2013-01-11 14:34:00,49.2,48.7,29.83,WSW,255,2.0,5.0,98,0.00,,,0.76,Wunderground v.1.15,2013-01-11 19:34:00,
2013-01-11 14:36:00,49.2,48.7,29.83,West,280,2.0,5.0,98,0.00,,,0.76,Wunderground v.1.15,2013-01-11 19:36:00,
2013-01-11 14:39:00,49.2,48.7,29.83,SW,221,0.0,6.0,98,0.00,,,0.76,Wunderground v.1.15,2013-01-11 19:39:00,
2013-01-11 14:41:00,49.3,48.8,29.83,WSW,253,0.0,3.0,98,0.00,,,0.76,Wunderground v.1.15,2013-01-11 19:41:00,
2013-01-11 14:44:00,49.3,48.8,29.83,West,265,0.0,3.0,98,0.00,,,0.76,Wunderground v.1.15,2013-01-11 19:44:00,
2013-01-11 14:46:00,49.3,48.8,29.83,SW,233,1.0,3.0,98,0.00,,,0.76,Wunderground v.1.15,2013-01-11 19:46:00,
2013-01-11 14:49:00,49.4,48.9,29.83,WSW,253,1.0,3.0,98,0.00,,,0.76,Wunderground v.1.15,2013-01-11 19:49:00,
2013-01-11 14:51:00,49.4,48.9,29.83,WSW,258,1.0,2.0,98,0.00,,,0.76,Wunderground v.1.15,2013-01-11 19:51:00,
2013-01-11 14:53:00,49.5,48.7,29.83,SSW,211,4.0,5.0,97,0.00,,,0.76,Wunderground v.1.15,2013-01-11 19:53:00,
2013-01-11 14:54:00,49.5,49.0,29.84,SW,233,0.0,5.0,98,0.00,,,0.76,Wunderground v.1.15,2013-01-11 19:54:00,
2013-01-11 14:56:00,49.6,49.1,29.84,SW,234,0.0,5.0,98,0.00,,,0.76,Wunderground v.1.15,2013-01-11 19:56:00,
2013-01-11 14:58:00,49.8,49.3,29.83,SW,228,1.0,5.0,98,0.00,,,0.76,Wunderground v.1.15,2013-01-11 19:58:00,
2013-01-11 14:59:00,49.9,49.4,29.83,ESE,120,2.0,6.0,98,0.00,,,0.76,Wunderground v.1.15,2013-01-11 19:59:00,
2013-01-11 15:01:00,50.0,49.5,29.83,SW,236,3.0,6.0,98,0.00,,,0.76,Wunderground v.1.15,2013-01-11 20:01:00,
2013-01-11 15:02:00,50.0,49.5,29.83,SSW,203,2.0,6.0,98,0.00,,,0.76,Wunderground v.1.15,2013-01-11 20:02:00,
2013-01-11 15:03:00,50.1,49.6,29.83,SW,226,0.0,6.0,98,0.00,,,0.76,Wunderground v.1.15,2013-01-11 20:03:00,
2013-01-11 15:04:00,50.1,49.6,29.83,WSW,255,1.0,6.0,98,0.00,,,0.76,Wunderground v.1.15,2013-01-11 20:04:00,
2013-01-11 15:06:00,50.2,49.4,29.84,SSW,211,4.0,6.0,97,0.00,,,0.76,Wunderground v.1.15,2013-01-11 20:06:00,
2013-01-11 15:07:00,50.3,49.5,29.84,SW,215,4.0,6.0,97,0.00,,,0.76,Wunderground v.1.15,2013-01-11 20:07:00,
2013-01-11 15:08:00,50.4,49.6,29.83,SW,233,2.0,6.0,97,0.00,,,0.76,Wunderground v.1.15,2013-01-11 20:08:00,
2013-01-11 15:09:00,50.4,49.6,29.84,WSW,239,2.0,6.0,97,0.00,,,0.76,Wunderground v.1.15,2013-01-11 20:09:00,
2013-01-11 15:11:00,50.5,49.7,29.84,WSW,242,5.0,6.0,97,0.00,,,0.76,Wunderground v.1.15,2013-01-11 20:11:00,
2013-01-11 15:13:00,50.6,49.8,29.84,WSW,246,2.0,6.0,97,0.00,,,0.76,Wunderground v.1.15,2013-01-11 20:13:00,
2013-01-11 15:14:00,50.7,49.9,29.84,WSW,246,0.0,6.0,97,0.00,,,0.76,Wunderground v.1.15,2013-01-11 20:14:00,
2013-01-11 15:16:00,50.9,50.1,29.84,West,265,1.0,6.0,97,0.00,,,0.76,Wunderground v.1.15,2013-01-11 20:16:00,
2013-01-11 15:18:00,50.9,50.1,29.84,SW,233,1.0,6.0,97,0.00,,,0.76,Wunderground v.1.15,2013-01-11 20:18:00,
2013-01-11 15:19:00,50.9,50.1,29.84,West,264,0.0,6.0,97,0.00,,,0.76,Wunderground v.1.15,2013-01-11 20:19:00,
2013-01-11 15:20:00,51.0,50.2,29.84,SW,226,0.0,2.0,97,0.00,,,0.76,Wunderground v.1.15,2013-01-11 20:20:00,
2013-01-11 15:21:00,51.1,50.3,29.84,WSW,252,1.0,2.0,97,0.00,,,0.76,Wunderground v.1.15,2013-01-11 20:21:00,
2013-01-11 15:23:00,51.2,50.4,29.84,ESE,108,1.0,3.0,97,0.00,,,0.76,Wunderground v.1.15,2013-01-11 20:23:00,
2013-01-11 15:24:00,51.3,50.5,29.84,ESE,108,0.0,3.0,97,0.00,,,0.76,Wunderground v.1.15,2013-01-11 20:24:00,
2013-01-11 15:25:00,51.3,50.2,29.84,SSW,208,5.0,5.0,96,0.00,,,0.76,Wunderground v.1.15,2013-01-11 20:25:00,
2013-01-11 15:27:00,51.4,50.3,29.84,WSW,246,1.0,6.0,96,0.00,,,0.76,Wunderground v.1.15,2013-01-11 20:27:00,
2013-01-11 15:28:00,51.4,50.3,29.84,WSW,244,5.0,6.0,96,0.00,,,0.76,Wunderground v.1.15,2013-01-11 20:28:00,
2013-01-11 15:29:00,51.4,50.3,29.84,WSW,239,6.0,7.0,96,0.00,,,0.76,Wunderground v.1.15,2013-01-11 20:29:00,
2013-01-11 15:30:00,51.5,50.4,29.84,WSW,252,2.0,3.0,96,0.00,,,0.76,Wunderground v.1.15,2013-01-11 20:30:00,
2013-01-11 15:32:00,51.6,50.2,29.84,WSW,246,1.0,3.0,95,0.00,,,0.76,Wunderground v.1.15,2013-01-11 20:32:00,
2013-01-11 15:34:00,51.6,50.2,29.84,West,262,2.0,5.0,95,0.00,,,0.76,Wunderground v.1.15,2013-01-11 20:34:00,
2013-01-11 15:35:00,51.6,50.2,29.84,SW,236,3.0,5.0,95,0.00,,,0.76,Wunderground v.1.15,2013-01-11 20:35:00,
2013-01-11 15:37:00,51.6,50.2,29.84,SW,236,2.0,5.0,95,0.00,,,0.76,Wunderground v.1.15,2013-01-11 20:37:00,
2013-01-11 15:39:00,51.7,50.0,29.84,West,260,3.0,5.0,94,0.00,,,0.76,Wunderground v.1.15,2013-01-11 20:39:00,
2013-01-11 15:40:00,51.8,50.1,29.85,SW,229,0.0,2.0,94,0.00,,,0.76,Wunderground v.1.15,2013-01-11 20:40:00,
2013-01-11 15:42:00,52.0,50.3,29.85,SW,236,4.0,6.0,94,0.00,,,0.76,Wunderground v.1.15,2013-01-11 20:42:00,
2013-01-11 15:44:00,52.3,50.6,29.85,SW,232,2.0,8.0,94,0.00,,,0.76,Wunderground v.1.15,2013-01-11 20:44:00,
2013-01-11 15:45:00,52.4,50.7,29.85,West,269,3.0,10.0,94,0.00,,,0.76,Wunderground v.1.15,2013-01-11 20:45:00,
2013-01-11 15:47:00,52.7,50.7,29.85,WSW,255,2.0,10.0,93,0.00,,,0.76,Wunderground v.1.15,2013-01-11 20:47:00,
2013-01-11 15:49:00,52.9,50.6,29.84,WSW,239,0.0,10.0,92,0.00,,,0.76,Wunderground v.1.15,2013-01-11 20:49:00,
2013-01-11 15:50:00,53.0,50.7,29.84,WSW,243,1.0,3.0,92,0.00,,,0.76,Wunderground v.1.15,2013-01-11 20:50:00,
2013-01-11 15:51:00,53.0,50.7,29.84,WSW,239,1.0,3.0,92,0.00,,,0.76,Wunderground v.1.15,2013-01-11 20:51:00,
2013-01-11 15:52:00,53.1,50.8,29.85,WSW,256,2.0,4.0,92,0.00,,,0.76,Wunderground v.1.15,2013-01-11 20:52:00,
2013-01-11 15:55:00,53.2,50.6,29.85,WSW,250,2.0,6.0,91,0.00,,,0.76,Wunderground v.1.15,2013-01-11 20:55:00,
2013-01-11 15:56:00,53.2,50.6,29.85,WSW,246,2.0,6.0,91,0.00,,,0.76,Wunderground v.1.15,2013-01-11 20:56:00,
2013-01-11 15:58:00,53.3,50.7,29.85,WSW,239,1.0,6.0,91,0.00,,,0.76,Wunderground v.1.15,2013-01-11 20:58:00,
2013-01-11 16:00:00,53.3,50.4,29.85,WNW,293,3.0,3.0,90,0.00,,,0.76,Wunderground v.1.15,2013-01-11 21:00:00,
2013-01-11 16:01:00,53.4,50.5,29.85,West,263,2.0,5.0,90,0.00,,,0.76,Wunderground v.1.15,2013-01-11 21:01:00,
2013-01-11 16:03:00,53.4,50.5,29.85,SW,233,2.0,9.0,90,0.00,,,0.76,Wunderground v.1.15,2013-01-11 21:03:00,
2013-01-11 16:05:00,53.4,50.5,29.85,WSW,255,3.0,9.0,90,0.00,,,0.76,Wunderground v.1.15,2013-01-11 21:05:00,
2013-01-11 16:06:00,53.4,50.5,29.85,West,259,2.0,9.0,90,0.00,,,0.76,Wunderground v.1.15,2013-01-11 21:06:00,
2013-01-11 16:08:00,53.2,50.0,29.85,WSW,239,3.0,9.0,89,0.00,,,0.76,Wunderground v.1.15,2013-01-11 21:08:00,
2013-01-11 16:10:00,53.2,50.0,29.85,WSW,238,2.0,3.0,89,0.00,,,0.76,Wunderground v.1.15,2013-01-11 21:10:00,
2013-01-11 16:11:00,53.1,49.9,29.85,WSW,255,4.0,6.0,89,0.00,,,0.76,Wunderground v.1.15,2013-01-11 21:11:00,
2013-01-11 16:13:00,53.1,50.2,29.85,WSW,252,4.0,6.0,90,0.00,,,0.76,Wunderground v.1.15,2013-01-11 21:13:00,
2013-01-11 16:15:00,53.1,49.9,29.85,West,264,2.0,6.0,89,0.00,,,0.76,Wunderground v.1.15,2013-01-11 21:15:00,
2013-01-11 16:16:00,53.1,49.9,29.85,WSW,246,2.0,6.0,89,0.00,,,0.76,Wunderground v.1.15,2013-01-11 21:16:00,
2013-01-11 16:17:00,53.1,49.9,29.85,WSW,240,3.0,6.0,89,0.00,,,0.76,Wunderground v.1.15,2013-01-11 21:17:00,
2013-01-11 16:18:00,53.1,49.9,29.85,SW,225,1.0,6.0,89,0.00,,,0.76,Wunderground v.1.15,2013-01-11 21:18:00,
2013-01-11 16:21:00,53.1,49.9,29.85,WSW,248,2.0,4.0,89,0.00,,,0.76,Wunderground v.1.15,2013-01-11 21:21:00,
2013-01-11 16:22:00,53.1,49.9,29.85,WSW,256,1.0,4.0,89,0.00,,,0.76,Wunderground v.1.15,2013-01-11 21:22:00,
2013-01-11 16:23:00,53.1,49.9,29.85,West,263,1.0,4.0,89,0.00,,,0.76,Wunderground v.1.15,2013-01-11 21:23:00,
2013-01-11 16:26:00,53.2,50.0,29.85,WSW,257,1.0,4.0,89,0.00,,,0.76,Wunderground v.1.15,2013-01-11 21:26:00,
2013-01-11 16:27:00,53.2,50.0,29.85,West,269,2.0,4.0,89,0.00,,,0.76,Wunderground v.1.15,2013-01-11 21:27:00,
2013-01-11 16:29:00,53.1,49.9,29.85,WSW,252,3.0,4.0,89,0.00,,,0.76,Wunderground v.1.15,2013-01-11 21:29:00,
2013-01-11 16:31:00,53.1,49.9,29.86,WSW,252,4.0,6.0,89,0.00,,,0.76,Wunderground v.1.15,2013-01-11 21:31:00,
2013-01-11 16:32:00,53.0,49.8,29.86,SW,235,2.0,6.0,89,0.00,,,0.76,Wunderground v.1.15,2013-01-11 21:32:00,
2013-01-11 16:34:00,53.0,49.8,29.86,SW,236,2.0,6.0,89,0.00,,,0.76,Wunderground v.1.15,2013-01-11 21:34:00,
2013-01-11 16:36:00,52.9,49.7,29.86,West,263,2.0,6.0,89,0.00,,,0.76,Wunderground v.1.15,2013-01-11 21:36:00,
2013-01-11 16:37:00,52.9,49.7,29.86,WSW,257,2.0,6.0,89,0.00,,,0.76,Wunderground v.1.15,2013-01-11 21:37:00,
2013-01-11 16:39:00,52.8,49.6,29.86,WSW,246,2.0,6.0,89,0.00,,,0.76,Wunderground v.1.15,2013-01-11 21:39:00,
2013-01-11 16:41:00,52.7,49.5,29.86,WSW,252,3.0,3.0,89,0.00,,,0.76,Wunderground v.1.15,2013-01-11 21:41:00,
2013-01-11 16:42:00,52.7,49.5,29.86,West,267,2.0,4.0,89,0.00,,,0.76,Wunderground v.1.15,2013-01-11 21:42:00,
2013-01-11 16:44:00,52.7,49.5,29.86,SW,225,3.0,4.0,89,0.00,,,0.76,Wunderground v.1.15,2013-01-11 21:44:00,
2013-01-11 16:46:00,52.7,49.5,29.86,SW,234,1.0,4.0,89,0.00,,,0.76,Wunderground v.1.15,2013-01-11 21:46:00,
2013-01-11 16:47:00,52.6,49.4,29.86,SW,225,2.0,4.0,89,0.00,,,0.76,Wunderground v.1.15,2013-01-11 21:47:00,
2013-01-11 16:48:00,52.6,49.4,29.86,SSW,203,1.0,4.0,89,0.00,,,0.76,Wunderground v.1.15,2013-01-11 21:48:00,
2013-01-11 16:49:00,52.6,49.4,29.86,WSW,246,3.0,4.0,89,0.00,,,0.76,Wunderground v.1.15,2013-01-11 21:49:00,
2013-01-11 16:52:00,52.5,49.4,29.86,WSW,242,0.0,3.0,89,0.00,,,0.76,Wunderground v.1.15,2013-01-11 21:52:00,
2013-01-11 16:53:00,52.5,49.4,29.86,SW,236,2.0,3.0,89,0.00,,,0.76,Wunderground v.1.15,2013-01-11 21:53:00,
2013-01-11 16:54:00,52.4,49.3,29.86,SW,227,3.0,4.0,89,0.00,,,0.76,Wunderground v.1.15,2013-01-11 21:54:00,
2013-01-11 16:57:00,52.4,49.3,29.86,West,273,2.0,8.0,89,0.00,,,0.76,Wunderground v.1.15,2013-01-11 21:57:00,
2013-01-11 16:58:00,52.4,49.3,29.86,SW,236,3.0,8.0,89,0.00,,,0.76,Wunderground v.1.15,2013-01-11 21:58:00,
2013-01-11 16:59:00,52.3,49.2,29.86,WSW,258,2.0,8.0,89,0.00,,,0.76,Wunderground v.1.15,2013-01-11 21:59:00,
2013-01-11 17:02:00,52.2,49.1,29.86,WSW,242,2.0,5.0,89,0.00,,,0.76,Wunderground v.1.15,2013-01-11 22:02:00,
2013-01-11 17:03:00,52.2,48.8,29.86,WSW,239,2.0,5.0,88,0.00,,,0.76,Wunderground v.1.15,2013-01-11 22:03:00,
2013-01-11 17:05:00,52.2,48.8,29.87,WSW,239,3.0,5.0,88,0.00,,,0.76,Wunderground v.1.15,2013-01-11 22:05:00,
2013-01-11 17:07:00,52.1,48.7,29.87,WSW,243,1.0,5.0,88,0.00,,,0.76,Wunderground v.1.15,2013-01-11 22:07:00,
2013-01-11 17:08:00,52.0,48.6,29.87,WSW,253,3.0,5.0,88,0.00,,,0.76,Wunderground v.1.15,2013-01-11 22:08:00,
2013-01-11 17:10:00,51.9,48.5,29.87,WSW,238,2.0,2.0,88,0.00,,,0.76,Wunderground v.1.15,2013-01-11 22:10:00,
2013-01-11 17:12:00,51.8,48.4,29.87,SW,229,0.0,4.0,88,0.00,,,0.76,Wunderground v.1.15,2013-01-11 22:12:00,
2013-01-11 17:13:00,51.8,48.4,29.87,WSW,243,2.0,4.0,88,0.00,,,0.76,Wunderground v.1.15,2013-01-11 22:13:00,
2013-01-11 17:15:00,51.7,48.3,29.87,SW,236,2.0,4.0,88,0.00,,,0.76,Wunderground v.1.15,2013-01-11 22:15:00,
2013-01-11 17:17:00,51.7,48.3,29.87,SW,219,3.0,4.0,88,0.00,,,0.76,Wunderground v.1.15,2013-01-11 22:17:00,
2013-01-11 17:18:00,51.7,48.3,29.87,WSW,248,2.0,4.0,88,0.00,,,0.76,Wunderground v.1.15,2013-01-11 22:18:00,
2013-01-11 17:20:00,51.7,48.3,29.87,WSW,246,2.0,3.0,88,0.00,,,0.76,Wunderground v.1.15,2013-01-11 22:20:00,
2013-01-11 17:22:00,51.6,48.2,29.87,West,267,2.0,5.0,88,0.00,,,0.76,Wunderground v.1.15,2013-01-11 22:22:00,
2013-01-11 17:23:00,51.6,48.2,29.87,WSW,257,1.0,5.0,88,0.00,,,0.76,Wunderground v.1.15,2013-01-11 22:23:00,
2013-01-11 17:25:00,51.5,47.8,29.87,WSW,239,4.0,5.0,87,0.00,,,0.76,Wunderground v.1.15,2013-01-11 22:25:00,
2013-01-11 17:27:00,51.5,47.8,29.87,West,269,2.0,6.0,87,0.00,,,0.76,Wunderground v.1.15,2013-01-11 22:27:00,
2013-01-11 17:28:00,51.5,47.8,29.87,WSW,249,6.0,10.0,87,0.00,,,0.76,Wunderground v.1.15,2013-01-11 22:28:00,
2013-01-11 17:30:00,51.6,47.5,29.87,WSW,256,4.0,7.0,86,0.00,,,0.76,Wunderground v.1.15,2013-01-11 22:30:00,
2013-01-11 17:32:00,51.7,47.6,29.87,WSW,249,3.0,7.0,86,0.00,,,0.76,Wunderground v.1.15,2013-01-11 22:32:00,
2013-01-11 17:33:00,51.6,47.2,29.88,WSW,246,5.0,7.0,85,0.00,,,0.76,Wunderground v.1.15,2013-01-11 22:33:00,
2013-01-11 17:35:00,51.6,47.2,29.88,WSW,257,3.0,7.0,85,0.00,,,0.76,Wunderground v.1.15,2013-01-11 22:35:00,
2013-01-11 17:37:00,51.5,47.1,29.88,WSW,246,3.0,7.0,85,0.00,,,0.76,Wunderground v.1.15,2013-01-11 22:37:00,
2013-01-11 17:38:00,51.5,47.1,29.88,WSW,249,3.0,8.0,85,0.00,,,0.76,Wunderground v.1.15,2013-01-11 22:38:00,
2013-01-11 17:39:00,51.5,47.1,29.88,SW,234,2.0,8.0,85,0.00,,,0.76,Wunderground v.1.15,2013-01-11 22:39:00,
2013-01-11 17:41:00,51.3,46.9,29.88,WSW,256,5.0,8.0,85,0.00,,,0.76,Wunderground v.1.15,2013-01-11 22:41:00,
2013-01-11 17:42:00,51.4,47.0,29.88,WSW,239,4.0,8.0,85,0.00,,,0.76,Wunderground v.1.15,2013-01-11 22:42:00,
2013-01-11 17:44:00,51.4,47.0,29.88,WSW,252,6.0,8.0,85,0.00,,,0.76,Wunderground v.1.15,2013-01-11 22:44:00,
2013-01-11 17:46:00,51.3,46.9,29.88,West,260,4.0,8.0,85,0.00,,,0.76,Wunderground v.1.15,2013-01-11 22:46:00,
2013-01-11 17:47:00,51.3,46.9,29.88,West,267,4.0,13.0,85,0.00,,,0.76,Wunderground v.1.15,2013-01-11 22:47:00,
2013-01-11 17:48:00,51.3,46.9,29.88,West,263,4.0,13.0,85,0.00,,,0.76,Wunderground v.1.15,2013-01-11 22:48:00,
2013-01-11 17:49:00,51.3,46.9,29.88,SW,229,6.0,13.0,85,0.00,,,0.76,Wunderground v.1.15,2013-01-11 22:49:00,
2013-01-11 17:51:00,51.3,46.6,29.88,WSW,256,6.0,11.0,84,0.00,,,0.76,Wunderground v.1.15,2013-01-11 22:51:00,
2013-01-11 17:52:00,51.3,46.6,29.87,WSW,246,7.0,11.0,84,0.00,,,0.76,Wunderground v.1.15,2013-01-11 22:52:00,
2013-01-11 17:54:00,51.3,46.6,29.88,WSW,257,3.0,11.0,84,0.00,,,0.76,Wunderground v.1.15,2013-01-11 22:54:00,
2013-01-11 17:56:00,51.3,46.6,29.87,WSW,250,7.0,11.0,84,0.00,,,0.76,Wunderground v.1.15,2013-01-11 22:56:00,
2013-01-11 17:57:00,51.3,46.3,29.88,SW,229,3.0,11.0,83,0.00,,,0.76,Wunderground v.1.15,2013-01-11 22:57:00,
2013-01-11 17:59:00,51.2,46.2,29.88,WSW,243,3.0,11.0,83,0.00,,,0.76,Wunderground v.1.15,2013-01-11 22:59:00,
2013-01-11 18:01:00,51.0,46.3,29.88,WSW,246,4.0,6.0,84,0.00,,,0.76,Wunderground v.1.15,2013-01-11 23:01:00,
2013-01-11 18:03:00,50.9,46.2,29.88,WSW,252,6.0,8.0,84,0.00,,,0.76,Wunderground v.1.15,2013-01-11 23:03:00,
2013-01-11 18:04:00,50.9,46.2,29.88,WSW,253,3.0,8.0,84,0.00,,,0.76,Wunderground v.1.15,2013-01-11 23:04:00,
2013-01-11 18:06:00,50.8,46.1,29.88,WSW,243,7.0,8.0,84,0.00,,,0.76,Wunderground v.1.15,2013-01-11 23:06:00,
2013-01-11 18:08:00,50.8,46.1,29.88,West,269,2.0,8.0,84,0.00,,,0.76,Wunderground v.1.15,2013-01-11 23:08:00,
2013-01-11 18:09:00,50.8,46.1,29.88,WSW,257,5.0,8.0,84,0.00,,,0.76,Wunderground v.1.15,2013-01-11 23:09:00,
2013-01-11 18:11:00,50.7,46.0,29.89,WSW,256,3.0,5.0,84,0.00,,,0.76,Wunderground v.1.15,2013-01-11 23:11:00,
2013-01-11 18:13:00,50.6,45.9,29.89,West,267,2.0,6.0,84,0.00,,,0.76,Wunderground v.1.15,2013-01-11 23:13:00,
2013-01-11 18:14:00,50.6,45.9,29.89,WSW,239,4.0,7.0,84,0.00,,,0.76,Wunderground v.1.15,2013-01-11 23:14:00,
2013-01-11 18:16:00,50.4,45.7,29.88,WSW,239,2.0,7.0,84,0.00,,,0.76,Wunderground v.1.15,2013-01-11 23:16:00,
2013-01-11 18:18:00,50.3,45.6,29.88,WSW,256,2.0,7.0,84,0.00,,,0.76,Wunderground v.1.15,2013-01-11 23:18:00,
2013-01-11 18:19:00,50.3,45.6,29.89,WSW,248,4.0,7.0,84,0.00,,,0.76,Wunderground v.1.15,2013-01-11 23:19:00,
2013-01-11 18:20:00,50.3,46.0,29.89,WSW,256,2.0,3.0,85,0.00,,,0.76,Wunderground v.1.15,2013-01-11 23:20:00,
2013-01-11 18:22:00,50.1,45.5,29.89,WSW,252,4.0,4.0,84,0.00,,,0.76,Wunderground v.1.15,2013-01-11 23:22:00,
2013-01-11 18:23:00,50.1,45.8,29.89,WSW,253,3.0,4.0,85,0.00,,,0.76,Wunderground v.1.15,2013-01-11 23:23:00,
2013-01-11 18:24:00,50.0,45.7,29.89,WSW,251,5.0,6.0,85,0.00,,,0.76,Wunderground v.1.15,2013-01-11 23:24:00,
2013-01-11 18:25:00,50.0,45.7,29.89,SW,222,4.0,6.0,85,0.00,,,0.76,Wunderground v.1.15,2013-01-11 23:25:00,
2013-01-11 18:27:00,49.9,45.6,29.89,WSW,239,2.0,6.0,85,0.00,,,0.76,Wunderground v.1.15,2013-01-11 23:27:00,
2013-01-11 18:28:00,49.9,45.6,29.89,WSW,243,3.0,6.0,85,0.00,,,0.76,Wunderground v.1.15,2013-01-11 23:28:00,
2013-01-11 18:29:00,49.8,45.5,29.89,WSW,243,2.0,6.0,85,0.00,,,0.76,Wunderground v.1.15,2013-01-11 23:29:00,
2013-01-11 18:30:00,49.7,45.4,29.89,West,259,2.0,3.0,85,0.00,,,0.76,Wunderground v.1.15,2013-01-11 23:30:00,
2013-01-11 18:32:00,49.6,45.3,29.89,WSW,250,2.0,3.0,85,0.00,,,0.76,Wunderground v.1.15,2013-01-11 23:32:00,
2013-01-11 18:33:00,49.5,45.5,29.90,WSW,251,2.0,3.0,86,0.00,,,0.76,Wunderground v.1.15,2013-01-11 23:33:00,
2013-01-11 18:34:00,49.5,45.5,29.90,West,259,4.0,5.0,86,0.00,,,0.76,Wunderground v.1.15,2013-01-11 23:34:00,
2013-01-11 18:35:00,49.4,45.4,29.90,WSW,246,2.0,5.0,86,0.00,,,0.76,Wunderground v.1.15,2013-01-11 23:35:00,
2013-01-11 18:37:00,49.4,45.4,29.90,WSW,239,5.0,6.0,86,0.00,,,0.76,Wunderground v.1.15,2013-01-11 23:37:00,
2013-01-11 18:38:00,49.4,45.7,29.90,WSW,248,4.0,6.0,87,0.00,,,0.76,Wunderground v.1.15,2013-01-11 23:38:00,
2013-01-11 18:39:00,49.4,45.7,29.89,West,270,4.0,6.0,87,0.00,,,0.76,Wunderground v.1.15,2013-01-11 23:39:00,
2013-01-11 18:40:00,49.4,45.4,29.89,WSW,243,3.0,4.0,86,0.00,,,0.76,Wunderground v.1.15,2013-01-11 23:40:00,
2013-01-11 18:42:00,49.3,45.3,29.89,WSW,256,5.0,5.0,86,0.00,,,0.76,Wunderground v.1.15,2013-01-11 23:42:00,
2013-01-11 18:44:00,49.2,45.2,29.89,WSW,252,5.0,5.0,86,0.00,,,0.76,Wunderground v.1.15,2013-01-11 23:44:00,
2013-01-11 18:45:00,49.1,45.4,29.89,WSW,246,3.0,7.0,87,0.00,,,0.76,Wunderground v.1.15,2013-01-11 23:45:00,
2013-01-11 18:47:00,49.1,45.4,29.90,West,262,2.0,8.0,87,0.00,,,0.76,Wunderground v.1.15,2013-01-11 23:47:00,
2013-01-11 18:49:00,49.1,45.1,29.90,WSW,255,3.0,8.0,86,0.00,,,0.76,Wunderground v.1.15,2013-01-11 23:49:00,
2013-01-11 18:50:00,49.0,45.0,29.90,West,273,3.0,7.0,86,0.00,,,0.76,Wunderground v.1.15,2013-01-11 23:50:00,
2013-01-11 18:52:00,49.0,45.3,29.90,WSW,256,5.0,7.0,87,0.00,,,0.76,Wunderground v.1.15,2013-01-11 23:52:00,
2013-01-11 18:54:00,49.0,45.0,29.90,WSW,248,3.0,7.0,86,0.00,,,0.76,Wunderground v.1.15,2013-01-11 23:54:00,
2013-01-11 18:55:00,49.0,45.0,29.90,SW,233,3.0,7.0,86,0.00,,,0.76,Wunderground v.1.15,2013-01-11 23:55:00,
2013-01-11 18:57:00,49.0,45.3,29.90,WSW,256,2.0,8.0,87,0.00,,,0.76,Wunderground v.1.15,2013-01-11 23:57:00,
2013-01-11 18:59:00,48.9,44.9,29.90,West,270,3.0,8.0,86,0.00,,,0.76,Wunderground v.1.15,2013-01-11 23:59:00,
2013-01-11 19:00:00,48.8,45.1,29.90,WSW,243,5.0,5.0,87,0.00,,,0.76,Wunderground v.1.15,2013-01-12 00:00:00,
2013-01-11 19:01:00,48.8,44.8,29.90,WSW,250,4.0,5.0,86,0.00,,,0.76,Wunderground v.1.15,2013-01-12 00:01:00,
2013-01-11 19:02:00,48.8,45.1,29.90,West,266,2.0,5.0,87,0.00,,,0.76,Wunderground v.1.15,2013-01-12 00:02:00,
2013-01-11 19:04:00,48.7,45.0,29.90,WSW,255,2.0,5.0,87,0.00,,,0.76,Wunderground v.1.15,2013-01-12 00:04:00,
2013-01-11 19:05:00,48.6,44.9,29.91,WSW,243,4.0,5.0,87,0.00,,,0.76,Wunderground v.1.15,2013-01-12 00:05:00,
2013-01-11 19:06:00,48.6,44.9,29.91,WSW,256,3.0,5.0,87,0.00,,,0.76,Wunderground v.1.15,2013-01-12 00:06:00,
2013-01-11 19:07:00,48.6,44.9,29.91,WSW,248,3.0,5.0,87,0.00,,,0.76,Wunderground v.1.15,2013-01-12 00:07:00,
2013-01-11 19:09:00,48.5,44.8,29.91,WSW,256,3.0,5.0,87,0.00,,,0.76,Wunderground v.1.15,2013-01-12 00:09:00,
2013-01-11 19:11:00,48.4,44.7,29.90,WSW,256,2.0,4.0,87,0.00,,,0.76,Wunderground v.1.15,2013-01-12 00:11:00,
2013-01-11 19:12:00,48.4,44.7,29.90,WSW,248,3.0,4.0,87,0.00,,,0.76,Wunderground v.1.15,2013-01-12 00:12:00,
2013-01-11 19:14:00,48.3,44.6,29.90,WSW,251,2.0,4.0,87,0.00,,,0.76,Wunderground v.1.15,2013-01-12 00:14:00,
2013-01-11 19:16:00,48.3,44.6,29.90,WSW,246,1.0,5.0,87,0.00,,,0.76,Wunderground v.1.15,2013-01-12 00:16:00,
2013-01-11 19:17:00,48.2,44.5,29.90,SW,226,2.0,5.0,87,0.00,,,0.76,Wunderground v.1.15,2013-01-12 00:17:00,
2013-01-11 19:20:00,48.1,44.4,29.89,South,171,0.0,2.0,87,0.00,,,0.76,Wunderground v.1.15,2013-01-12 00:20:00,
2013-01-11 19:21:00,48.0,44.6,29.88,West,277,1.0,2.0,88,0.00,,,0.76,Wunderground v.1.15,2013-01-12 00:21:00,
2013-01-11 19:22:00,48.0,44.6,29.88,West,277,0.0,2.0,88,0.00,,,0.76,Wunderground v.1.15,2013-01-12 00:22:00,
2013-01-11 19:25:00,47.9,44.5,29.89,WSW,252,2.0,2.0,88,0.00,,,0.76,Wunderground v.1.15,2013-01-12 00:25:00,
2013-01-11 19:26:00,47.8,44.4,29.89,WSW,242,1.0,4.0,88,0.00,,,0.76,Wunderground v.1.15,2013-01-12 00:26:00,
2013-01-11 19:27:00,47.8,44.4,29.89,WSW,242,1.0,4.0,88,0.00,,,0.76,Wunderground v.1.15,2013-01-12 00:27:00,
2013-01-11 19:28:00,47.8,44.4,29.89,WSW,241,0.0,4.0,88,0.00,,,0.76,Wunderground v.1.15,2013-01-12 00:28:00,
2013-01-11 19:30:00,47.7,44.3,29.89,WSW,241,0.0,1.0,88,0.00,,,0.76,Wunderground v.1.15,2013-01-12 00:30:00,
2013-01-11 19:31:00,47.6,44.2,29.89,WSW,242,0.0,1.0,88,0.00,,,0.76,Wunderground v.1.15,2013-01-12 00:31:00,
2013-01-11 19:32:00,47.6,44.2,29.89,WSW,242,0.0,1.0,88,0.00,,,0.76,Wunderground v.1.15,2013-01-12 00:32:00,
2013-01-11 19:33:00,47.5,44.1,29.89,WSW,241,0.0,1.0,88,0.00,,,0.76,Wunderground v.1.15,2013-01-12 00:33:00,
2013-01-11 19:35:00,47.4,44.0,29.89,WSW,242,0.0,1.0,88,0.00,,,0.76,Wunderground v.1.15,2013-01-12 00:35:00,
2013-01-11 19:36:00,47.3,44.2,29.89,WSW,242,1.0,1.0,89,0.00,,,0.76,Wunderground v.1.15,2013-01-12 00:36:00,
2013-01-11 19:37:00,47.3,44.2,29.89,SW,236,1.0,1.0,89,0.00,,,0.76,Wunderground v.1.15,2013-01-12 00:37:00,
2013-01-11 19:38:00,47.2,44.1,29.89,SW,231,2.0,2.0,89,0.00,,,0.76,Wunderground v.1.15,2013-01-12 00:38:00,
2013-01-11 19:40:00,47.2,44.1,29.90,WSW,252,1.0,3.0,89,0.00,,,0.76,Wunderground v.1.15,2013-01-12 00:40:00,
2013-01-11 19:42:00,47.2,44.4,29.90,WSW,241,0.0,3.0,90,0.00,,,0.76,Wunderground v.1.15,2013-01-12 00:42:00,
2013-01-11 19:43:00,47.2,44.4,29.90,WSW,243,1.0,3.0,90,0.00,,,0.76,Wunderground v.1.15,2013-01-12 00:43:00,
2013-01-11 19:45:00,47.2,44.4,29.90,SW,232,1.0,3.0,90,0.00,,,0.76,Wunderground v.1.15,2013-01-12 00:45:00,
2013-01-11 19:47:00,47.1,44.3,29.90,SW,232,0.0,3.0,90,0.00,,,0.76,Wunderground v.1.15,2013-01-12 00:47:00,
2013-01-11 19:48:00,47.1,44.0,29.90,SW,232,0.0,3.0,89,0.00,,,0.76,Wunderground v.1.15,2013-01-12 00:48:00,
2013-01-11 19:49:00,47.0,43.9,29.90,SW,235,0.0,3.0,89,0.00,,,0.76,Wunderground v.1.15,2013-01-12 00:49:00,
2013-01-11 19:50:00,46.9,44.1,29.90,West,272,0.0,1.0,90,0.00,,,0.76,Wunderground v.1.15,2013-01-12 00:50:00,
2013-01-11 19:52:00,46.9,44.1,29.90,West,274,0.0,2.0,90,0.00,,,0.76,Wunderground v.1.15,2013-01-12 00:52:00,
2013-01-11 19:53:00,46.9,44.1,29.90,West,274,0.0,2.0,90,0.00,,,0.76,Wunderground v.1.15,2013-01-12 00:53:00,
2013-01-11 19:54:00,46.8,44.0,29.90,West,264,1.0,2.0,90,0.00,,,0.76,Wunderground v.1.15,2013-01-12 00:54:00,
2013-01-11 19:55:00,46.8,44.0,29.90,WSW,253,0.0,2.0,90,0.00,,,0.76,Wunderground v.1.15,2013-01-12 00:55:00,
2013-01-11 19:57:00,46.7,43.9,29.90,WSW,253,0.0,2.0,90,0.00,,,0.76,Wunderground v.1.15,2013-01-12 00:57:00,
2013-01-11 19:58:00,46.6,43.8,29.90,WSW,253,0.0,2.0,90,0.00,,,0.76,Wunderground v.1.15,2013-01-12 00:58:00,
2013-01-11 19:59:00,46.6,43.8,29.90,SSW,195,0.0,2.0,90,0.00,,,0.76,Wunderground v.1.15,2013-01-12 00:59:00,
2013-01-11 20:01:00,46.5,43.7,29.90,SSW,208,0.0,1.0,90,0.00,,,0.76,Wunderground v.1.15,2013-01-12 01:01:00,
2013-01-11 20:02:00,46.5,43.7,29.90,SSW,208,0.0,1.0,90,0.00,,,0.76,Wunderground v.1.15,2013-01-12 01:02:00,
2013-01-11 20:03:00,46.4,43.6,29.90,SSW,208,0.0,1.0,90,0.00,,,0.76,Wunderground v.1.15,2013-01-12 01:03:00,
2013-01-11 20:04:00,46.4,43.9,29.90,WSW,243,0.0,1.0,91,0.00,,,0.76,Wunderground v.1.15,2013-01-12 01:04:00,
2013-01-11 20:06:00,46.3,43.8,29.90,WSW,243,0.0,1.0,91,0.00,,,0.76,Wunderground v.1.15,2013-01-12 01:06:00,
2013-01-11 20:07:00,46.3,43.8,29.90,WSW,243,0.0,1.0,91,0.00,,,0.76,Wunderground v.1.15,2013-01-12 01:07:00,
2013-01-11 20:08:00,46.3,43.8,29.90,WSW,243,0.0,1.0,91,0.00,,,0.76,Wunderground v.1.15,2013-01-12 01:08:00,
2013-01-11 20:09:00,46.2,43.7,29.90,WSW,243,0.0,1.0,91,0.00,,,0.76,Wunderground v.1.15,2013-01-12 01:09:00,
2013-01-11 20:11:00,46.2,43.7,29.90,SW,236,1.0,1.0,91,0.00,,,0.76,Wunderground v.1.15,2013-01-12 01:11:00,
2013-01-11 20:12:00,46.1,43.6,29.90,WSW,238,2.0,2.0,91,0.00,,,0.76,Wunderground v.1.15,2013-01-12 01:12:00,
2013-01-11 20:13:00,46.1,43.9,29.90,WSW,241,1.0,2.0,92,0.00,,,0.76,Wunderground v.1.15,2013-01-12 01:13:00,
2013-01-11 20:14:00,46.2,44.0,29.90,WSW,243,1.0,2.0,92,0.00,,,0.76,Wunderground v.1.15,2013-01-12 01:14:00,
2013-01-11 20:16:00,46.1,43.9,29.90,WSW,243,0.0,2.0,92,0.00,,,0.76,Wunderground v.1.15,2013-01-12 01:16:00,
2013-01-11 20:17:00,46.1,43.9,29.90,WSW,243,0.0,2.0,92,0.00,,,0.76,Wunderground v.1.15,2013-01-12 01:17:00,
2013-01-11 20:18:00,46.1,43.9,29.91,WSW,243,0.0,2.0,92,0.00,,,0.76,Wunderground v.1.15,2013-01-12 01:18:00,
2013-01-11 20:19:00,46.1,43.9,29.91,WSW,250,1.0,2.0,92,0.00,,,0.76,Wunderground v.1.15,2013-01-12 01:19:00,
2013-01-11 20:21:00,46.1,43.9,29.91,WSW,241,0.0,1.0,92,0.00,,,0.76,Wunderground v.1.15,2013-01-12 01:21:00,
2013-01-11 20:22:00,46.1,43.9,29.91,WSW,239,0.0,1.0,92,0.00,,,0.76,Wunderground v.1.15,2013-01-12 01:22:00,
2013-01-11 20:23:00,46.1,43.9,29.91,SW,232,0.0,3.0,92,0.00,,,0.76,Wunderground v.1.15,2013-01-12 01:23:00,
2013-01-11 20:25:00,46.1,43.9,29.91,WSW,251,1.0,3.0,92,0.00,,,0.76,Wunderground v.1.15,2013-01-12 01:25:00,
2013-01-11 20:26:00,46.1,43.9,29.91,WSW,252,1.0,3.0,92,0.00,,,0.76,Wunderground v.1.15,2013-01-12 01:26:00,
2013-01-11 20:27:00,46.1,43.9,29.91,WSW,239,1.0,3.0,92,0.00,,,0.76,Wunderground v.1.15,2013-01-12 01:27:00,
2013-01-11 20:29:00,46.1,44.2,29.91,SW,236,0.0,4.0,93,0.00,,,0.76,Wunderground v.1.15,2013-01-12 01:29:00,
2013-01-11 20:30:00,46.1,44.2,29.91,SW,219,0.0,1.0,93,0.00,,,0.76,Wunderground v.1.15,2013-01-12 01:30:00,
2013-01-11 20:31:00,46.2,44.3,29.91,WSW,239,2.0,2.0,93,0.00,,,0.76,Wunderground v.1.15,2013-01-12 01:31:00,
2013-01-11 20:32:00,46.2,44.3,29.91,WSW,242,1.0,2.0,93,0.00,,,0.76,Wunderground v.1.15,2013-01-12 01:32:00,
2013-01-11 20:34:00,46.2,44.0,29.91,WSW,256,2.0,2.0,92,0.00,,,0.76,Wunderground v.1.15,2013-01-12 01:34:00,
2013-01-11 20:35:00,46.2,44.3,29.91,SW,217,1.0,3.0,93,0.00,,,0.76,Wunderground v.1.15,2013-01-12 01:35:00,
2013-01-11 20:36:00,46.2,44.3,29.91,WSW,243,5.0,5.0,93,0.00,,,0.76,Wunderground v.1.15,2013-01-12 01:36:00,
2013-01-11 20:38:00,46.3,44.4,29.91,WSW,246,1.0,5.0,93,0.00,,,0.76,Wunderground v.1.15,2013-01-12 01:38:00,
2013-01-11 20:39:00,46.3,44.4,29.91,SW,221,6.0,7.0,93,0.00,,,0.76,Wunderground v.1.15,2013-01-12 01:39:00,
2013-01-11 20:40:00,46.5,44.6,29.92,WSW,255,1.0,3.0,93,0.00,,,0.76,Wunderground v.1.15,2013-01-12 01:40:00,
2013-01-11 20:41:00,46.5,44.6,29.92,SW,236,1.0,3.0,93,0.00,,,0.76,Wunderground v.1.15,2013-01-12 01:41:00,
2013-01-11 20:43:00,46.5,44.3,29.91,SW,233,2.0,3.0,92,0.00,,,0.76,Wunderground v.1.15,2013-01-12 01:43:00,
2013-01-11 20:44:00,46.5,44.3,29.91,ESE,121,1.0,3.0,92,0.00,,,0.76,Wunderground v.1.15,2013-01-12 01:44:00,
2013-01-11 20:45:00,46.5,44.3,29.90,SSE,162,1.0,3.0,92,0.00,,,0.76,Wunderground v.1.15,2013-01-12 01:45:00,
2013-01-11 20:46:00,46.5,44.3,29.89,SW,225,0.0,3.0,92,0.00,,,0.76,Wunderground v.1.15,2013-01-12 01:46:00,
2013-01-11 20:48:00,46.5,44.3,29.89,SW,218,1.0,3.0,92,0.00,,,0.76,Wunderground v.1.15,2013-01-12 01:48:00,
2013-01-11 20:49:00,46.5,44.3,29.89,SW,232,0.0,3.0,92,0.00,,,0.76,Wunderground v.1.15,2013-01-12 01:49:00,
2013-01-11 20:50:00,46.4,44.2,29.89,SSW,212,2.0,2.0,92,0.00,,,0.76,Wunderground v.1.15,2013-01-12 01:50:00,
2013-01-11 20:52:00,46.4,44.2,29.89,South,181,1.0,2.0,92,0.00,,,0.76,Wunderground v.1.15,2013-01-12 01:52:00,
2013-01-11 20:53:00,46.4,44.2,29.89,SSE,148,1.0,4.0,92,0.00,,,0.76,Wunderground v.1.15,2013-01-12 01:53:00,
2013-01-11 20:54:00,46.5,44.3,29.89,SW,233,2.0,4.0,92,0.00,,,0.76,Wunderground v.1.15,2013-01-12 01:54:00,
2013-01-11 20:56:00,46.5,44.3,29.89,SW,236,1.0,4.0,92,0.00,,,0.76,Wunderground v.1.15,2013-01-12 01:56:00,
2013-01-11 20:57:00,46.5,44.3,29.89,SW,225,0.0,4.0,92,0.00,,,0.76,Wunderground v.1.15,2013-01-12 01:57:00,
2013-01-11 20:58:00,46.6,44.4,29.89,WSW,239,0.0,4.0,92,0.00,,,0.76,Wunderground v.1.15,2013-01-12 01:58:00,
2013-01-11 20:59:00,46.6,44.4,29.90,WSW,240,3.0,4.0,92,0.00,,,0.76,Wunderground v.1.15,2013-01-12 01:59:00,
2013-01-11 21:01:00,46.6,44.4,29.90,SW,235,2.0,3.0,92,0.00,,,0.76,Wunderground v.1.15,2013-01-12 02:01:00,
2013-01-11 21:02:00,46.7,44.5,29.90,SSE,155,0.0,3.0,92,0.00,,,0.76,Wunderground v.1.15,2013-01-12 02:02:00,
2013-01-11 21:03:00,46.7,44.5,29.90,SSW,196,0.0,3.0,92,0.00,,,0.76,Wunderground v.1.15,2013-01-12 02:03:00,
2013-01-11 21:05:00,46.7,44.5,29.90,SW,226,0.0,3.0,92,0.00,,,0.76,Wunderground v.1.15,2013-01-12 02:05:00,
2013-01-11 21:06:00,46.7,44.5,29.90,SW,229,1.0,3.0,92,0.00,,,0.76,Wunderground v.1.15,2013-01-12 02:06:00,
2013-01-11 21:07:00,46.7,44.5,29.90,SW,235,0.0,3.0,92,0.00,,,0.76,Wunderground v.1.15,2013-01-12 02:07:00,
2013-01-11 21:08:00,46.7,44.5,29.91,WSW,250,3.0,5.0,92,0.00,,,0.76,Wunderground v.1.15,2013-01-12 02:08:00,
2013-01-11 21:10:00,46.8,44.9,29.91,SW,236,0.0,1.0,93,0.00,,,0.76,Wunderground v.1.15,2013-01-12 02:10:00,
2013-01-11 21:11:00,46.9,44.7,29.91,SW,228,0.0,5.0,92,0.00,,,0.76,Wunderground v.1.15,2013-01-12 02:11:00,
2013-01-11 21:12:00,47.0,44.8,29.91,SW,222,0.0,5.0,92,0.00,,,0.76,Wunderground v.1.15,2013-01-12 02:12:00,
2013-01-11 21:13:00,47.0,44.8,29.90,South,187,0.0,5.0,92,0.00,,,0.76,Wunderground v.1.15,2013-01-12 02:13:00,
2013-01-11 21:15:00,47.0,44.8,29.90,SE,136,0.0,5.0,92,0.00,,,0.76,Wunderground v.1.15,2013-01-12 02:15:00,
2013-01-11 21:16:00,47.0,44.8,29.90,West,270,1.0,5.0,92,0.00,,,0.76,Wunderground v.1.15,2013-01-12 02:16:00,
2013-01-11 21:17:00,47.0,44.8,29.90,West,277,0.0,5.0,92,0.00,,,0.76,Wunderground v.1.15,2013-01-12 02:17:00,
2013-01-11 21:19:00,47.0,44.8,29.90,SW,236,3.0,6.0,92,0.00,,,0.76,Wunderground v.1.15,2013-01-12 02:19:00,
2013-01-11 21:20:00,47.1,44.9,29.90,SW,225,0.0,1.0,92,0.00,,,0.76,Wunderground v.1.15,2013-01-12 02:20:00,
2013-01-11 21:21:00,47.1,44.9,29.90,SW,220,0.0,1.0,92,0.00,,,0.76,Wunderground v.1.15,2013-01-12 02:21:00,
2013-01-11 21:22:00,47.1,44.9,29.89,SW,220,0.0,1.0,92,0.00,,,0.76,Wunderground v.1.15,2013-01-12 02:22:00,
2013-01-11 21:24:00,47.1,44.9,29.89,WSW,256,0.0,1.0,92,0.00,,,0.76,Wunderground v.1.15,2013-01-12 02:24:00,
2013-01-11 21:25:00,47.0,44.8,29.89,WSW,238,1.0,5.0,92,0.00,,,0.76,Wunderground v.1.15,2013-01-12 02:25:00,
2013-01-11 21:26:00,47.0,44.8,29.89,WSW,243,1.0,5.0,92,0.00,,,0.76,Wunderground v.1.15,2013-01-12 02:26:00,
2013-01-11 21:28:00,47.0,44.8,29.90,WSW,239,1.0,5.0,92,0.00,,,0.76,Wunderground v.1.15,2013-01-12 02:28:00,
2013-01-11 21:29:00,47.0,44.8,29.90,SW,236,3.0,5.0,92,0.00,,,0.76,Wunderground v.1.15,2013-01-12 02:29:00,
2013-01-11 21:30:00,47.0,44.8,29.90,SSW,210,0.0,3.0,92,0.00,,,0.76,Wunderground v.1.15,2013-01-12 02:30:00,
2013-01-11 21:31:00,47.0,44.8,29.90,SW,227,0.0,3.0,92,0.00,,,0.76,Wunderground v.1.15,2013-01-12 02:31:00,
2013-01-11 21:33:00,47.0,44.8,29.90,SW,233,4.0,4.0,92,0.00,,,0.76,Wunderground v.1.15,2013-01-12 02:33:00,
2013-01-11 21:34:00,47.1,44.9,29.90,WSW,255,0.0,4.0,92,0.00,,,0.76,Wunderground v.1.15,2013-01-12 02:34:00,
2013-01-11 21:36:00,47.1,44.9,29.90,SW,224,0.0,4.0,92,0.00,,,0.76,Wunderground v.1.15,2013-01-12 02:36:00,
2013-01-11 21:37:00,47.1,44.9,29.90,SW,224,0.0,4.0,92,0.00,,,0.76,Wunderground v.1.15,2013-01-12 02:37:00,
2013-01-11 21:38:00,47.0,44.8,29.90,SW,224,0.0,4.0,92,0.00,,,0.76,Wunderground v.1.15,2013-01-12 02:38:00,
2013-01-11 21:39:00,47.0,44.8,29.90,WSW,249,0.0,4.0,92,0.00,,,0.76,Wunderground v.1.15,2013-01-12 02:39:00,
2013-01-11 21:41:00,46.9,44.4,29.90,WSW,251,1.0,4.0,91,0.00,,,0.76,Wunderground v.1.15,2013-01-12 02:41:00,
2013-01-11 21:42:00,46.9,44.7,29.90,SW,232,0.0,4.0,92,0.00,,,0.76,Wunderground v.1.15,2013-01-12 02:42:00,
2013-01-11 21:44:00,46.9,44.7,29.90,WSW,242,0.0,4.0,92,0.00,,,0.76,Wunderground v.1.15,2013-01-12 02:44:00,
2013-01-11 21:45:00,46.9,44.7,29.91,WSW,252,0.0,4.0,92,0.00,,,0.76,Wunderground v.1.15,2013-01-12 02:45:00,
2013-01-11 21:46:00,46.9,44.7,29.90,WSW,251,0.0,4.0,92,0.00,,,0.76,Wunderground v.1.15,2013-01-12 02:46:00,
2013-01-11 21:47:00,46.8,44.6,29.90,WSW,252,0.0,4.0,92,0.00,,,0.76,Wunderground v.1.15,2013-01-12 02:47:00,
2013-01-11 21:49:00,46.8,44.6,29.90,SW,224,0.0,4.0,92,0.00,,,0.76,Wunderground v.1.15,2013-01-12 02:49:00,
2013-01-11 21:50:00,46.8,44.6,29.90,SW,229,0.0,2.0,92,0.00,,,0.76,Wunderground v.1.15,2013-01-12 02:50:00,
2013-01-11 21:51:00,46.8,44.6,29.90,SW,214,1.0,3.0,92,0.00,,,0.76,Wunderground v.1.15,2013-01-12 02:51:00,
2013-01-11 21:52:00,46.9,44.7,29.90,SW,229,3.0,3.0,92,0.00,,,0.76,Wunderground v.1.15,2013-01-12 02:52:00,
2013-01-11 21:54:00,46.9,44.7,29.90,SSW,200,0.0,3.0,92,0.00,,,0.76,Wunderground v.1.15,2013-01-12 02:54:00,
2013-01-11 21:55:00,46.9,44.7,29.90,SW,231,0.0,3.0,92,0.00,,,0.76,Wunderground v.1.15,2013-01-12 02:55:00,
2013-01-11 21:56:00,46.9,44.7,29.90,SW,229,0.0,3.0,92,0.00,,,0.76,Wunderground v.1.15,2013-01-12 02:56:00,
2013-01-11 21:57:00,46.9,44.7,29.90,WSW,256,0.0,3.0,92,0.00,,,0.76,Wunderground v.1.15,2013-01-12 02:57:00,
2013-01-11 21:59:00,46.9,44.7,29.90,SW,236,0.0,3.0,92,0.00,,,0.76,Wunderground v.1.15,2013-01-12 02:59:00,
2013-01-11 22:01:00,46.9,44.7,29.91,SW,226,0.0,1.0,92,0.00,,,0.76,Wunderground v.1.15,2013-01-12 03:01:00,
2013-01-11 22:02:00,46.9,44.7,29.91,SW,228,0.0,1.0,92,0.00,,,0.76,Wunderground v.1.15,2013-01-12 03:02:00,
2013-01-11 22:04:00,46.9,44.7,29.91,West,259,4.0,4.0,92,0.00,,,0.76,Wunderground v.1.15,2013-01-12 03:04:00,
2013-01-11 22:06:00,46.9,44.7,29.92,SW,233,0.0,4.0,92,0.00,,,0.76,Wunderground v.1.15,2013-01-12 03:06:00,
2013-01-11 22:07:00,46.8,44.6,29.92,WSW,245,1.0,4.0,92,0.00,,,0.76,Wunderground v.1.15,2013-01-12 03:07:00,
2013-01-11 22:09:00,46.8,44.6,29.92,SW,233,1.0,4.0,92,0.00,,,0.76,Wunderground v.1.15,2013-01-12 03:09:00,
2013-01-11 22:11:00,46.7,44.5,29.92,WNW,283,0.0,1.0,92,0.00,,,0.76,Wunderground v.1.15,2013-01-12 03:11:00,
2013-01-11 22:12:00,46.7,44.5,29.92,WNW,283,0.0,1.0,92,0.00,,,0.76,Wunderground v.1.15,2013-01-12 03:12:00,
2013-01-11 22:14:00,46.6,44.4,29.92,SW,236,1.0,1.0,92,0.00,,,0.76,Wunderground v.1.15,2013-01-12 03:14:00,
2013-01-11 22:16:00,46.6,44.7,29.92,SW,222,1.0,1.0,93,0.00,,,0.76,Wunderground v.1.15,2013-01-12 03:16:00,
2013-01-11 22:17:00,46.6,44.7,29.91,SSE,160,0.0,1.0,93,0.00,,,0.76,Wunderground v.1.15,2013-01-12 03:17:00,
2013-01-11 22:18:00,46.6,44.7,29.91,SSE,160,0.0,1.0,93,0.00,,,0.76,Wunderground v.1.15,2013-01-12 03:18:00,
2013-01-11 22:20:00,46.6,44.7,29.91,SSE,165,0.0,0.0,93,0.00,,,0.76,Wunderground v.1.15,2013-01-12 03:20:00,
2013-01-11 22:22:00,46.5,44.6,29.91,SSE,148,0.0,4.0,93,0.00,,,0.76,Wunderground v.1.15,2013-01-12 03:22:00,
2013-01-11 22:23:00,46.5,44.6,29.91,SSE,148,0.0,4.0,93,0.00,,,0.76,Wunderground v.1.15,2013-01-12 03:23:00,
2013-01-11 22:25:00,46.5,44.6,29.91,SSE,147,0.0,4.0,93,0.00,,,0.76,Wunderground v.1.15,2013-01-12 03:25:00,
2013-01-11 22:27:00,46.4,44.5,29.90,South,173,0.0,4.0,93,0.00,,,0.76,Wunderground v.1.15,2013-01-12 03:27:00,
2013-01-11 22:29:00,46.3,44.4,29.90,West,260,0.0,4.0,93,0.00,,,0.76,Wunderground v.1.15,2013-01-12 03:29:00,
2013-01-11 22:30:00,46.3,44.4,29.90,WSW,243,0.0,0.0,93,0.00,,,0.76,Wunderground v.1.15,2013-01-12 03:30:00,
2013-01-11 22:32:00,46.2,44.3,29.90,WSW,243,0.0,0.0,93,0.00,,,0.76,Wunderground v.1.15,2013-01-12 03:32:00,
2013-01-11 22:34:00,46.2,44.3,29.90,WSW,239,0.0,0.0,93,0.00,,,0.76,Wunderground v.1.15,2013-01-12 03:34:00,
2013-01-11 22:35:00,46.1,44.2,29.90,WSW,239,0.0,0.0,93,0.00,,,0.76,Wunderground v.1.15,2013-01-12 03:35:00,
2013-01-11 22:37:00,46.1,44.2,29.90,SSW,205,0.0,2.0,93,0.00,,,0.76,Wunderground v.1.15,2013-01-12 03:37:00,
2013-01-11 22:39:00,46.1,44.5,29.91,SW,235,0.0,2.0,94,0.00,,,0.76,Wunderground v.1.15,2013-01-12 03:39:00,
2013-01-11 22:41:00,46.1,44.5,29.91,WSW,252,0.0,1.0,94,0.00,,,0.76,Wunderground v.1.15,2013-01-12 03:41:00,
2013-01-11 22:42:00,46.1,44.5,29.91,WSW,243,0.0,1.0,94,0.00,,,0.76,Wunderground v.1.15,2013-01-12 03:42:00,
2013-01-11 22:44:00,46.1,44.5,29.90,WSW,240,0.0,1.0,94,0.00,,,0.76,Wunderground v.1.15,2013-01-12 03:44:00,
2013-01-11 22:46:00,46.1,44.5,29.91,WSW,241,0.0,1.0,94,0.00,,,0.76,Wunderground v.1.15,2013-01-12 03:46:00,
2013-01-11 22:47:00,46.1,44.5,29.91,SW,225,0.0,1.0,94,0.00,,,0.76,Wunderground v.1.15,2013-01-12 03:47:00,
2013-01-11 22:49:00,46.1,44.5,29.91,SW,226,0.0,1.0,94,0.00,,,0.76,Wunderground v.1.15,2013-01-12 03:49:00,
2013-01-11 22:51:00,46.1,44.5,29.90,SW,226,0.0,1.0,94,0.00,,,0.76,Wunderground v.1.15,2013-01-12 03:51:00,
2013-01-11 22:52:00,46.0,44.4,29.91,SW,233,0.0,2.0,94,0.00,,,0.76,Wunderground v.1.15,2013-01-12 03:52:00,
2013-01-11 22:55:00,46.0,44.4,29.91,SSW,197,0.0,2.0,94,0.00,,,0.76,Wunderground v.1.15,2013-01-12 03:55:00,
2013-01-11 22:56:00,45.9,44.3,29.90,South,170,0.0,2.0,94,0.00,,,0.76,Wunderground v.1.15,2013-01-12 03:56:00,
2013-01-11 22:57:00,45.9,44.3,29.90,South,174,0.0,2.0,94,0.00,,,0.76,Wunderground v.1.15,2013-01-12 03:57:00,
2013-01-11 22:58:00,46.0,44.4,29.90,SSE,166,0.0,2.0,94,0.00,,,0.76,Wunderground v.1.15,2013-01-12 03:58:00,
2013-01-11 23:00:00,45.9,44.3,29.90,SSE,162,0.0,0.0,94,0.00,,,0.76,Wunderground v.1.15,2013-01-12 04:00:00,
2013-01-11 23:02:00,45.9,44.3,29.90,SSE,162,0.0,0.0,94,0.00,,,0.76,Wunderground v.1.15,2013-01-12 04:02:00,
2013-01-11 23:03:00,45.9,44.3,29.90,South,169,0.0,0.0,94,0.00,,,0.76,Wunderground v.1.15,2013-01-12 04:03:00,
2013-01-11 23:05:00,45.8,44.2,29.90,South,169,0.0,0.0,94,0.00,,,0.76,Wunderground v.1.15,2013-01-12 04:05:00,
2013-01-11 23:07:00,45.8,44.2,29.90,WSW,256,0.0,0.0,94,0.00,,,0.76,Wunderground v.1.15,2013-01-12 04:07:00,
2013-01-11 23:08:00,45.8,44.2,29.90,SSE,151,2.0,2.0,94,0.00,,,0.76,Wunderground v.1.15,2013-01-12 04:08:00,
2013-01-11 23:10:00,45.8,44.4,29.89,West,278,0.0,0.0,95,0.00,,,0.76,Wunderground v.1.15,2013-01-12 04:10:00,
2013-01-11 23:12:00,45.8,44.2,29.90,WSW,256,0.0,1.0,94,0.00,,,0.76,Wunderground v.1.15,2013-01-12 04:12:00,
2013-01-11 23:13:00,45.8,44.4,29.90,WSW,256,0.0,1.0,95,0.00,,,0.76,Wunderground v.1.15,2013-01-12 04:13:00,
2013-01-11 23:15:00,45.8,44.4,29.89,South,183,0.0,1.0,95,0.00,,,0.76,Wunderground v.1.15,2013-01-12 04:15:00,
2013-01-11 23:17:00,45.8,44.4,29.89,East,94,0.0,3.0,95,0.00,,,0.76,Wunderground v.1.15,2013-01-12 04:17:00,
2013-01-11 23:18:00,45.8,44.4,29.89,WSW,239,1.0,3.0,95,0.00,,,0.76,Wunderground v.1.15,2013-01-12 04:18:00,
2013-01-11 23:20:00,45.8,44.4,29.89,SSW,203,0.0,0.0,95,0.00,,,0.76,Wunderground v.1.15,2013-01-12 04:20:00,
2013-01-11 23:22:00,45.8,44.4,29.89,SW,224,1.0,2.0,95,0.00,,,0.76,Wunderground v.1.15,2013-01-12 04:22:00,
2013-01-11 23:23:00,45.8,44.4,29.89,SW,221,0.0,2.0,95,0.00,,,0.76,Wunderground v.1.15,2013-01-12 04:23:00,
2013-01-11 23:24:00,45.8,44.4,29.89,SW,221,0.0,2.0,95,0.00,,,0.76,Wunderground v.1.15,2013-01-12 04:24:00,
2013-01-11 23:25:00,45.8,44.4,29.88,SW,226,0.0,2.0,95,0.00,,,0.76,Wunderground v.1.15,2013-01-12 04:25:00,
2013-01-11 23:27:00,45.8,44.4,29.89,SSE,156,0.0,3.0,95,0.00,,,0.76,Wunderground v.1.15,2013-01-12 04:27:00,
2013-01-11 23:28:00,45.8,44.4,29.89,SSE,156,0.0,3.0,95,0.00,,,0.76,Wunderground v.1.15,2013-01-12 04:28:00,
2013-01-11 23:29:00,45.8,44.4,29.89,SW,236,3.0,4.0,95,0.00,,,0.76,Wunderground v.1.15,2013-01-12 04:29:00,
2013-01-11 23:30:00,45.8,44.4,29.88,West,271,0.0,2.0,95,0.00,,,0.76,Wunderground v.1.15,2013-01-12 04:30:00,
2013-01-11 23:32:00,45.9,44.5,29.88,West,271,0.0,2.0,95,0.00,,,0.76,Wunderground v.1.15,2013-01-12 04:32:00,
2013-01-11 23:33:00,45.8,44.4,29.88,West,270,0.0,2.0,95,0.00,,,0.76,Wunderground v.1.15,2013-01-12 04:33:00,
2013-01-11 23:34:00,45.8,44.4,29.88,WNW,298,1.0,2.0,95,0.00,,,0.76,Wunderground v.1.15,2013-01-12 04:34:00,
2013-01-11 23:35:00,45.8,44.4,29.88,WNW,297,0.0,2.0,95,0.00,,,0.76,Wunderground v.1.15,2013-01-12 04:35:00,
2013-01-11 23:37:00,45.8,44.4,29.88,ESE,121,0.0,2.0,95,0.00,,,0.76,Wunderground v.1.15,2013-01-12 04:37:00,
2013-01-11 23:38:00,45.7,44.4,29.88,ESE,121,0.0,2.0,95,0.00,,,0.76,Wunderground v.1.15,2013-01-12 04:38:00,
2013-01-11 23:40:00,45.7,44.4,29.88,South,190,0.0,0.0,95,0.00,,,0.76,Wunderground v.1.15,2013-01-12 04:40:00,
2013-01-11 23:41:00,45.7,44.4,29.88,WSW,246,0.0,0.0,95,0.00,,,0.76,Wunderground v.1.15,2013-01-12 04:41:00,
2013-01-11 23:42:00,45.7,44.4,29.87,WSW,239,0.0,0.0,95,0.00,,,0.76,Wunderground v.1.15,2013-01-12 04:42:00,
2013-01-11 23:43:00,45.7,44.4,29.87,WSW,248,0.0,1.0,95,0.00,,,0.76,Wunderground v.1.15,2013-01-12 04:43:00,
2013-01-11 23:45:00,45.7,44.4,29.87,SSW,208,0.0,1.0,95,0.00,,,0.76,Wunderground v.1.15,2013-01-12 04:45:00,
2013-01-11 23:46:00,45.7,44.4,29.87,South,176,1.0,1.0,95,0.00,,,0.76,Wunderground v.1.15,2013-01-12 04:46:00,
2013-01-11 23:48:00,45.7,44.4,29.87,South,186,0.0,2.0,95,0.00,,,0.76,Wunderground v.1.15,2013-01-12 04:48:00,
2013-01-11 23:50:00,45.6,44.3,29.87,SSW,194,0.0,0.0,95,0.00,,,0.76,Wunderground v.1.15,2013-01-12 04:50:00,
2013-01-11 23:51:00,45.6,44.3,29.87,South,180,0.0,0.0,95,0.00,,,0.76,Wunderground v.1.15,2013-01-12 04:51:00,
2013-01-11 23:53:00,45.6,44.3,29.87,South,180,0.0,0.0,95,0.00,,,0.76,Wunderground v.1.15,2013-01-12 04:53:00,
2013-01-11 23:55:00,45.5,44.2,29.87,SW,214,0.0,0.0,95,0.00,,,0.76,Wunderground v.1.15,2013-01-12 04:55:00,
2013-01-11 23:56:00,45.5,44.2,29.87,WSW,246,0.0,1.0,95,0.00,,,0.76,Wunderground v.1.15,2013-01-12 04:56:00,
2013-01-11 23:58:00,45.5,44.2,29.87,WSW,246,0.0,1.0,95,0.00,,,0.76,Wunderground v.1.15,2013-01-12 04:58:00,